Time,TemperatureF,DewpointF,PressureIn,WindDirection,WindDirectionDegrees,WindSpeedMPH,WindSpeedGustMPH,Humidity,HourlyPrecipIn,Conditions,Clouds,dailyrainin,SoftwareType,DateUTC
2013-02-24 00:03:00,51.1,32.6,30.01,East,90,2.0,2.0,49,0.00,,,0.00,WUHU21623XXSP,2013-02-24 06:03:00,
2013-02-24 00:08:00,51.1,33.2,30.01,ENE,67,2.0,2.0,50,0.00,,,0.00,WUHU21623XXSP,2013-02-24 06:08:00,
2013-02-24 00:13:00,51.1,33.2,30.01,East,90,0.0,2.0,50,0.00,,,0.00,WUHU21623XXSP,2013-02-24 06:13:00,
2013-02-24 00:18:00,51.1,33.2,30.02,ESE,112,0.0,2.0,50,0.00,,,0.00,WUHU21623XXSP,2013-02-24 06:18:00,
2013-02-24 00:23:00,50.9,33.0,30.01,East,90,0.0,0.0,50,0.00,,,0.00,WUHU21623XXSP,2013-02-24 06:23:00,
2013-02-24 00:24:00,50.9,33.0,30.01,East,90,0.0,0.0,50,0.00,,,0.00,WUHU21623XXSP,2013-02-24 06:24:00,
2013-02-24 00:28:00,50.7,32.8,30.01,ESE,112,0.0,0.0,50,0.00,,,0.00,WUHU21623XXSP,2013-02-24 06:28:00,
2013-02-24 00:29:00,50.7,32.8,30.01,ESE,112,0.0,0.0,50,0.00,,,0.00,WUHU21623XXSP,2013-02-24 06:29:00,
2013-02-24 00:33:00,50.7,32.8,30.01,ESE,112,1.0,2.0,50,0.00,,,0.00,WUHU21623XXSP,2013-02-24 06:33:00,
2013-02-24 00:34:00,50.7,32.8,30.01,ESE,112,2.0,2.0,50,0.00,,,0.00,WUHU21623XXSP,2013-02-24 06:34:00,
2013-02-24 00:38:00,50.5,32.7,30.01,ESE,112,2.0,2.0,50,0.00,,,0.00,WUHU21623XXSP,2013-02-24 06:38:00,
2013-02-24 00:39:00,50.5,32.7,30.01,East,90,3.0,3.0,50,0.00,,,0.00,WUHU21623XXSP,2013-02-24 06:39:00,
2013-02-24 00:43:00,50.4,32.5,30.01,ENE,67,3.0,3.0,50,0.00,,,0.00,WUHU21623XXSP,2013-02-24 06:43:00,
2013-02-24 00:44:00,50.4,32.5,30.01,ENE,67,3.0,3.0,50,0.00,,,0.00,WUHU21623XXSP,2013-02-24 06:44:00,
2013-02-24 00:45:00,50.4,32.5,30.01,ENE,67,3.0,4.0,50,0.00,,,0.00,WUHU21623XXSP,2013-02-24 06:45:00,
2013-02-24 00:48:00,50.4,32.5,30.01,ENE,67,3.0,4.0,50,0.00,,,0.00,WUHU21623XXSP,2013-02-24 06:48:00,
2013-02-24 00:49:00,50.4,32.5,30.01,ENE,73,3.0,4.0,50,0.00,,,0.00,WUHU21623XXSP,2013-02-24 06:49:00,
2013-02-24 00:50:00,50.2,32.3,30.01,East,90,3.0,4.0,50,0.00,,,0.00,WUHU21623XXSP,2013-02-24 06:50:00,
2013-02-24 00:53:00,50.2,32.3,30.01,East,84,2.0,4.0,50,0.00,,,0.00,WUHU21623XXSP,2013-02-24 06:53:00,
2013-02-24 00:54:00,50.2,32.3,30.01,ENE,67,2.0,4.0,50,0.00,,,0.00,WUHU21623XXSP,2013-02-24 06:54:00,
2013-02-24 00:55:00,50.2,32.3,30.01,East,90,3.0,4.0,50,0.00,,,0.00,WUHU21623XXSP,2013-02-24 06:55:00,
2013-02-24 00:58:00,50.2,32.3,30.01,East,90,3.0,3.0,50,0.00,,,0.00,WUHU21623XXSP,2013-02-24 06:58:00,
2013-02-24 00:59:00,50.2,32.3,30.01,East,90,4.0,4.0,50,0.00,,,0.00,WUHU21623XXSP,2013-02-24 06:59:00,
2013-02-24 01:06:00,50.2,32.3,30.01,East,90,4.0,4.0,50,0.00,,,0.00,WUHU21623XXSP,2013-02-24 07:06:00,
2013-02-24 01:07:00,50.2,32.3,30.00,East,99,3.0,4.0,50,0.00,,,0.00,WUHU21623XXSP,2013-02-24 07:07:00,
2013-02-24 01:11:00,49.8,32.0,30.01,ESE,111,2.0,4.0,50,0.00,,,0.00,WUHU21623XXSP,2013-02-24 07:11:00,
2013-02-24 01:12:00,49.8,32.0,30.01,ESE,112,3.0,4.0,50,0.00,,,0.00,WUHU21623XXSP,2013-02-24 07:12:00,
2013-02-24 01:17:00,49.8,32.0,30.01,ENE,67,4.0,4.0,50,0.00,,,0.00,WUHU21623XXSP,2013-02-24 07:17:00,
2013-02-24 01:22:00,49.8,32.5,30.01,ENE,67,3.0,4.0,51,0.00,,,0.00,WUHU21623XXSP,2013-02-24 07:22:00,
2013-02-24 01:27:00,49.8,32.5,30.00,East,90,5.0,5.0,51,0.00,,,0.00,WUHU21623XXSP,2013-02-24 07:27:00,
2013-02-24 01:32:00,49.8,32.5,30.00,ENE,67,8.0,8.0,51,0.00,,,0.00,WUHU21623XXSP,2013-02-24 07:32:00,
2013-02-24 01:33:00,49.8,32.5,30.00,East,86,6.0,8.0,51,0.00,,,0.00,WUHU21623XXSP,2013-02-24 07:33:00,
2013-02-24 01:37:00,49.6,32.3,30.00,ESE,109,4.0,8.0,51,0.00,,,0.00,WUHU21623XXSP,2013-02-24 07:37:00,
2013-02-24 01:38:00,49.6,32.3,30.00,East,90,6.0,8.0,51,0.00,,,0.00,WUHU21623XXSP,2013-02-24 07:38:00,
2013-02-24 01:42:00,49.6,32.3,30.00,East,95,3.0,6.0,51,0.00,,,0.00,WUHU21623XXSP,2013-02-24 07:42:00,
2013-02-24 01:43:00,49.6,32.3,30.00,East,95,3.0,6.0,51,0.00,,,0.00,WUHU21623XXSP,2013-02-24 07:43:00,
2013-02-24 01:47:00,49.6,32.3,30.00,East,96,3.0,6.0,51,0.00,,,0.00,WUHU21623XXSP,2013-02-24 07:47:00,
2013-02-24 01:48:00,49.6,32.3,29.99,East,90,4.0,5.0,51,0.00,,,0.00,WUHU21623XXSP,2013-02-24 07:48:00,
2013-02-24 01:53:00,49.3,31.9,29.99,ESE,107,5.0,7.0,51,0.00,,,0.00,WUHU21623XXSP,2013-02-24 07:53:00,
2013-02-24 01:58:00,49.3,31.9,29.99,East,90,6.0,9.0,51,0.00,,,0.00,WUHU21623XXSP,2013-02-24 07:58:00,
2013-02-24 02:03:00,49.3,31.9,29.99,ESE,112,7.0,9.0,51,0.00,,,0.00,WUHU21623XXSP,2013-02-24 08:03:00,
2013-02-24 02:04:00,49.3,31.9,29.99,ESE,105,5.0,9.0,51,0.00,,,0.00,WUHU21623XXSP,2013-02-24 08:04:00,
2013-02-24 02:08:00,49.1,31.3,29.99,East,90,5.0,9.0,50,0.00,,,0.00,WUHU21623XXSP,2013-02-24 08:08:00,
2013-02-24 02:09:00,49.1,31.3,29.99,ESE,118,5.0,9.0,50,0.00,,,0.00,WUHU21623XXSP,2013-02-24 08:09:00,
2013-02-24 02:13:00,49.1,31.3,29.99,ESE,112,5.0,9.0,50,0.00,,,0.00,WUHU21623XXSP,2013-02-24 08:13:00,
2013-02-24 02:14:00,49.1,31.3,29.99,ESE,112,6.0,7.0,50,0.00,,,0.00,WUHU21623XXSP,2013-02-24 08:14:00,
2013-02-24 02:18:00,49.1,31.3,29.99,ESE,110,5.0,8.0,50,0.00,,,0.00,WUHU21623XXSP,2013-02-24 08:18:00,
2013-02-24 02:19:00,49.1,31.3,29.99,ESE,112,5.0,8.0,50,0.00,,,0.00,WUHU21623XXSP,2013-02-24 08:19:00,
2013-02-24 02:23:00,49.1,31.3,29.99,ESE,112,7.0,8.0,50,0.00,,,0.00,WUHU21623XXSP,2013-02-24 08:23:00,
2013-02-24 02:24:00,49.1,31.3,29.99,ESE,112,6.0,8.0,50,0.00,,,0.00,WUHU21623XXSP,2013-02-24 08:24:00,
2013-02-24 02:28:00,49.1,31.3,29.99,ESE,112,5.0,9.0,50,0.00,,,0.00,WUHU21623XXSP,2013-02-24 08:28:00,
2013-02-24 02:29:00,49.1,31.3,29.99,East,100,4.0,9.0,50,0.00,,,0.00,WUHU21623XXSP,2013-02-24 08:29:00,
2013-02-24 02:33:00,49.1,31.3,29.99,ESE,112,4.0,9.0,50,0.00,,,0.00,WUHU21623XXSP,2013-02-24 08:33:00,
2013-02-24 02:34:00,49.1,31.3,29.99,ESE,118,4.0,9.0,50,0.00,,,0.00,WUHU21623XXSP,2013-02-24 08:34:00,
2013-02-24 02:39:00,49.1,31.3,29.99,ESE,112,2.0,6.0,50,0.00,,,0.00,WUHU21623XXSP,2013-02-24 08:39:00,
2013-02-24 02:40:00,49.1,31.3,29.99,East,101,2.0,6.0,50,0.00,,,0.00,WUHU21623XXSP,2013-02-24 08:40:00,
2013-02-24 02:44:00,49.1,31.3,29.99,ESE,107,2.0,4.0,50,0.00,,,0.00,WUHU21623XXSP,2013-02-24 08:44:00,
2013-02-24 02:45:00,49.1,31.3,29.99,ESE,106,3.0,6.0,50,0.00,,,0.00,WUHU21623XXSP,2013-02-24 08:45:00,
2013-02-24 02:49:00,48.9,31.1,29.99,ESE,120,3.0,6.0,50,0.00,,,0.00,WUHU21623XXSP,2013-02-24 08:49:00,
2013-02-24 02:50:00,48.9,31.1,29.98,SE,135,3.0,6.0,50,0.00,,,0.00,WUHU21623XXSP,2013-02-24 08:50:00,
2013-02-24 02:54:00,48.9,31.1,29.99,ESE,121,3.0,5.0,50,0.00,,,0.00,WUHU21623XXSP,2013-02-24 08:54:00,
2013-02-24 02:55:00,48.9,31.1,29.99,ESE,112,4.0,5.0,50,0.00,,,0.00,WUHU21623XXSP,2013-02-24 08:55:00,
2013-02-24 02:59:00,48.7,30.9,29.99,South,180,4.0,5.0,50,0.00,,,0.00,WUHU21623XXSP,2013-02-24 08:59:00,
2013-02-24 03:00:00,48.7,30.9,29.99,South,170,3.0,5.0,50,0.00,,,0.00,WUHU21623XXSP,2013-02-24 09:00:00,
2013-02-24 03:10:00,48.7,30.9,29.99,South,180,0.0,0.0,50,0.00,,,0.00,WUHU21623XXSP,2013-02-24 09:10:00,
2013-02-24 03:15:00,48.6,30.7,29.99,ESE,112,5.0,5.0,50,0.00,,,0.00,WUHU21623XXSP,2013-02-24 09:15:00,
2013-02-24 03:20:00,48.6,30.7,29.99,East,101,2.0,5.0,50,0.00,,,0.00,WUHU21623XXSP,2013-02-24 09:20:00,
2013-02-24 03:25:00,48.4,30.6,29.98,ESE,112,2.0,5.0,50,0.00,,,0.00,WUHU21623XXSP,2013-02-24 09:25:00,
2013-02-24 03:30:00,48.4,30.6,29.98,ESE,119,3.0,5.0,50,0.00,,,0.00,WUHU21623XXSP,2013-02-24 09:30:00,
2013-02-24 03:35:00,48.4,30.6,29.99,ESE,112,2.0,5.0,50,0.00,,,0.00,WUHU21623XXSP,2013-02-24 09:35:00,
2013-02-24 03:36:00,48.4,30.6,29.99,SE,130,2.0,5.0,50,0.00,,,0.00,WUHU21623XXSP,2013-02-24 09:36:00,
2013-02-24 03:40:00,48.4,30.6,29.99,SE,135,2.0,3.0,50,0.00,,,0.00,WUHU21623XXSP,2013-02-24 09:40:00,
2013-02-24 03:41:00,48.4,30.6,29.99,SE,132,2.0,3.0,50,0.00,,,0.00,WUHU21623XXSP,2013-02-24 09:41:00,
2013-02-24 03:45:00,48.2,30.4,29.99,ESE,112,1.0,5.0,50,0.00,,,0.00,WUHU21623XXSP,2013-02-24 09:45:00,
2013-02-24 03:46:00,48.2,30.4,29.99,ESE,112,1.0,5.0,50,0.00,,,0.00,WUHU21623XXSP,2013-02-24 09:46:00,
2013-02-24 03:50:00,48.0,30.2,29.98,ESE,112,0.0,5.0,50,0.00,,,0.00,WUHU21623XXSP,2013-02-24 09:50:00,
2013-02-24 03:51:00,48.0,30.2,29.98,ESE,112,0.0,5.0,50,0.00,,,0.00,WUHU21623XXSP,2013-02-24 09:51:00,
2013-02-24 03:56:00,48.0,30.2,29.98,ESE,112,0.0,0.0,50,0.00,,,0.00,WUHU21623XXSP,2013-02-24 09:56:00,
2013-02-24 03:57:00,48.0,30.2,29.98,SE,135,0.0,0.0,50,0.00,,,0.00,WUHU21623XXSP,2013-02-24 09:57:00,
2013-02-24 04:10:00,48.0,30.2,29.98,ESE,112,0.0,0.0,50,0.00,,,0.00,WUHU21623XXSP,2013-02-24 10:10:00,
2013-02-24 04:15:00,47.8,30.1,29.98,SE,135,1.0,2.0,50,0.00,,,0.00,WUHU21623XXSP,2013-02-24 10:15:00,
2013-02-24 04:16:00,47.8,30.1,29.98,SE,135,1.0,2.0,50,0.00,,,0.00,WUHU21623XXSP,2013-02-24 10:16:00,
2013-02-24 04:20:00,47.7,29.9,29.98,SE,131,2.0,3.0,50,0.00,,,0.00,WUHU21623XXSP,2013-02-24 10:20:00,
2013-02-24 04:21:00,47.7,29.9,29.98,SE,135,2.0,3.0,50,0.00,,,0.00,WUHU21623XXSP,2013-02-24 10:21:00,
2013-02-24 04:25:00,47.5,29.7,29.98,ESE,116,2.0,3.0,50,0.00,,,0.00,WUHU21623XXSP,2013-02-24 10:25:00,
2013-02-24 04:26:00,47.5,29.7,29.98,ESE,112,3.0,3.0,50,0.00,,,0.00,WUHU21623XXSP,2013-02-24 10:26:00,
2013-02-24 04:30:00,47.5,29.7,29.98,ESE,111,2.0,4.0,50,0.00,,,0.00,WUHU21623XXSP,2013-02-24 10:30:00,
2013-02-24 04:31:00,47.5,29.7,29.98,ESE,116,2.0,4.0,50,0.00,,,0.00,WUHU21623XXSP,2013-02-24 10:31:00,
2013-02-24 04:35:00,47.5,29.7,29.98,ESE,112,2.0,4.0,50,0.00,,,0.00,WUHU21623XXSP,2013-02-24 10:35:00,
2013-02-24 04:36:00,47.5,29.7,29.98,ESE,112,2.0,4.0,50,0.00,,,0.00,WUHU21623XXSP,2013-02-24 10:36:00,
2013-02-24 04:40:00,47.3,29.6,29.98,East,97,2.0,3.0,50,0.00,,,0.00,WUHU21623XXSP,2013-02-24 10:40:00,
2013-02-24 04:41:00,47.3,29.6,29.97,East,90,2.0,3.0,50,0.00,,,0.00,WUHU21623XXSP,2013-02-24 10:41:00,
2013-02-24 04:45:00,47.3,29.6,29.98,East,90,1.0,2.0,50,0.00,,,0.00,WUHU21623XXSP,2013-02-24 10:45:00,
2013-02-24 04:46:00,47.1,29.4,29.98,East,90,1.0,2.0,50,0.00,,,0.00,WUHU21623XXSP,2013-02-24 10:46:00,
2013-02-24 04:50:00,47.1,29.4,29.98,ENE,67,2.0,3.0,50,0.00,,,0.00,WUHU21623XXSP,2013-02-24 10:50:00,
2013-02-24 04:51:00,47.1,29.4,29.98,ENE,67,2.0,3.0,50,0.00,,,0.00,WUHU21623XXSP,2013-02-24 10:51:00,
2013-02-24 04:55:00,47.1,29.4,29.98,NE,45,2.0,3.0,50,0.00,,,0.00,WUHU21623XXSP,2013-02-24 10:55:00,
2013-02-24 04:56:00,47.1,29.4,29.98,ENE,60,1.0,3.0,50,0.00,,,0.00,WUHU21623XXSP,2013-02-24 10:56:00,
2013-02-24 04:57:00,47.1,29.4,29.98,NE,53,1.0,2.0,50,0.00,,,0.00,WUHU21623XXSP,2013-02-24 10:57:00,
2013-02-24 05:09:00,47.1,29.9,29.98,ENE,67,0.0,0.0,51,0.00,,,0.00,WUHU21623XXSP,2013-02-24 11:09:00,
2013-02-24 05:10:00,46.9,29.7,29.98,ENE,67,0.0,0.0,51,0.00,,,0.00,WUHU21623XXSP,2013-02-24 11:10:00,
2013-02-24 05:14:00,46.9,29.7,29.97,East,86,2.0,2.0,51,0.00,,,0.00,WUHU21623XXSP,2013-02-24 11:14:00,
2013-02-24 05:15:00,46.9,29.7,29.97,East,86,2.0,2.0,51,0.00,,,0.00,WUHU21623XXSP,2013-02-24 11:15:00,
2013-02-24 05:20:00,46.8,29.5,29.98,NE,45,0.0,2.0,51,0.00,,,0.00,WUHU21623XXSP,2013-02-24 11:20:00,
2013-02-24 05:25:00,46.6,29.4,29.98,NE,45,0.0,0.0,51,0.00,,,0.00,WUHU21623XXSP,2013-02-24 11:25:00,
2013-02-24 05:26:00,46.6,29.4,29.98,NE,45,0.0,0.0,51,0.00,,,0.00,WUHU21623XXSP,2013-02-24 11:26:00,
2013-02-24 05:30:00,46.6,29.4,29.98,NE,45,0.0,0.0,51,0.00,,,0.00,WUHU21623XXSP,2013-02-24 11:30:00,
2013-02-24 05:31:00,46.6,29.4,29.98,NE,45,0.0,0.0,51,0.00,,,0.00,WUHU21623XXSP,2013-02-24 11:31:00,
2013-02-24 05:35:00,46.4,29.2,29.98,ENE,67,0.0,0.0,51,0.00,,,0.00,WUHU21623XXSP,2013-02-24 11:35:00,
2013-02-24 05:36:00,46.4,29.2,29.98,ENE,67,0.0,0.0,51,0.00,,,0.00,WUHU21623XXSP,2013-02-24 11:36:00,
2013-02-24 05:40:00,46.2,29.0,29.98,East,90,2.0,2.0,51,0.00,,,0.00,WUHU21623XXSP,2013-02-24 11:40:00,
2013-02-24 05:41:00,46.2,29.0,29.98,ENE,67,0.0,2.0,51,0.00,,,0.00,WUHU21623XXSP,2013-02-24 11:41:00,
2013-02-24 05:45:00,46.2,29.0,29.98,ENE,67,0.0,2.0,51,0.00,,,0.00,WUHU21623XXSP,2013-02-24 11:45:00,
2013-02-24 05:46:00,46.2,29.0,29.98,ENE,67,0.0,2.0,51,0.00,,,0.00,WUHU21623XXSP,2013-02-24 11:46:00,
2013-02-24 05:50:00,46.2,29.5,29.98,ENE,67,0.0,0.0,52,0.00,,,0.00,WUHU21623XXSP,2013-02-24 11:50:00,
2013-02-24 05:51:00,46.0,29.3,29.98,ENE,67,0.0,0.0,52,0.00,,,0.00,WUHU21623XXSP,2013-02-24 11:51:00,
2013-02-24 05:55:00,46.0,29.3,29.99,NE,45,0.0,0.0,52,0.00,,,0.00,WUHU21623XXSP,2013-02-24 11:55:00,
2013-02-24 05:56:00,46.0,29.3,29.98,NE,45,0.0,0.0,52,0.00,,,0.00,WUHU21623XXSP,2013-02-24 11:56:00,
2013-02-24 06:06:00,46.0,29.3,29.98,East,90,0.0,0.0,52,0.00,,,0.00,WUHU21623XXSP,2013-02-24 12:06:00,
2013-02-24 06:07:00,46.0,29.3,29.98,East,90,0.0,0.0,52,0.00,,,0.00,WUHU21623XXSP,2013-02-24 12:07:00,
2013-02-24 06:12:00,45.9,29.2,29.99,ENE,67,0.0,0.0,52,0.00,,,0.00,WUHU21623XXSP,2013-02-24 12:12:00,
2013-02-24 06:17:00,45.7,29.0,29.99,ESE,117,2.0,2.0,52,0.00,,,0.00,WUHU21623XXSP,2013-02-24 12:17:00,
2013-02-24 06:22:00,45.7,29.0,29.99,ESE,122,2.0,2.0,52,0.00,,,0.00,WUHU21623XXSP,2013-02-24 12:22:00,
2013-02-24 06:23:00,45.7,29.0,29.99,ESE,118,2.0,2.0,52,0.00,,,0.00,WUHU21623XXSP,2013-02-24 12:23:00,
2013-02-24 06:27:00,45.7,29.0,29.99,SE,141,2.0,3.0,52,0.00,,,0.00,WUHU21623XXSP,2013-02-24 12:27:00,
2013-02-24 06:28:00,45.7,29.0,29.99,SE,134,2.0,3.0,52,0.00,,,0.00,WUHU21623XXSP,2013-02-24 12:28:00,
2013-02-24 06:32:00,45.7,29.0,29.99,SE,125,2.0,3.0,52,0.00,,,0.00,WUHU21623XXSP,2013-02-24 12:32:00,
2013-02-24 06:33:00,45.7,29.0,29.99,SSE,147,2.0,3.0,52,0.00,,,0.00,WUHU21623XXSP,2013-02-24 12:33:00,
2013-02-24 06:38:00,45.7,29.5,29.99,SE,125,2.0,2.0,53,0.00,,,0.00,WUHU21623XXSP,2013-02-24 12:38:00,
2013-02-24 06:39:00,45.7,29.5,29.99,SE,125,2.0,2.0,53,0.00,,,0.00,WUHU21623XXSP,2013-02-24 12:39:00,
2013-02-24 06:43:00,45.7,29.5,29.99,ESE,112,2.0,2.0,53,0.00,,,0.00,WUHU21623XXSP,2013-02-24 12:43:00,
2013-02-24 06:44:00,45.7,29.5,29.99,ESE,112,2.0,2.0,53,0.00,,,0.00,WUHU21623XXSP,2013-02-24 12:44:00,
2013-02-24 06:48:00,45.7,29.5,29.99,ESE,112,2.0,3.0,53,0.00,,,0.00,WUHU21623XXSP,2013-02-24 12:48:00,
2013-02-24 06:49:00,45.7,29.5,29.99,ESE,112,2.0,3.0,53,0.00,,,0.00,WUHU21623XXSP,2013-02-24 12:49:00,
2013-02-24 06:53:00,45.7,29.5,29.99,ESE,112,1.0,3.0,53,0.00,,,0.00,WUHU21623XXSP,2013-02-24 12:53:00,
2013-02-24 06:54:00,45.7,29.5,29.99,ESE,112,1.0,3.0,53,0.00,,,0.00,WUHU21623XXSP,2013-02-24 12:54:00,
2013-02-24 06:59:00,45.7,29.5,29.99,SE,132,3.0,3.0,53,0.00,,,0.00,WUHU21623XXSP,2013-02-24 12:59:00,
2013-02-24 07:04:00,45.5,29.3,29.99,SE,135,2.0,3.0,53,0.00,,,0.00,WUHU21623XXSP,2013-02-24 13:04:00,
2013-02-24 07:05:00,45.5,29.3,29.99,SE,135,3.0,3.0,53,0.00,,,0.00,WUHU21623XXSP,2013-02-24 13:05:00,
2013-02-24 07:09:00,45.5,29.3,29.99,SE,135,3.0,4.0,53,0.00,,,0.00,WUHU21623XXSP,2013-02-24 13:09:00,
2013-02-24 07:10:00,45.5,29.3,29.99,SE,127,3.0,4.0,53,0.00,,,0.00,WUHU21623XXSP,2013-02-24 13:10:00,
2013-02-24 07:14:00,45.5,29.3,29.99,SE,131,3.0,5.0,53,0.00,,,0.00,WUHU21623XXSP,2013-02-24 13:14:00,
2013-02-24 07:15:00,45.7,29.5,29.99,ESE,122,3.0,5.0,53,0.00,,,0.00,WUHU21623XXSP,2013-02-24 13:15:00,
2013-02-24 07:19:00,45.7,29.5,29.99,SE,126,5.0,6.0,53,0.00,,,0.00,WUHU21623XXSP,2013-02-24 13:19:00,
2013-02-24 07:20:00,45.7,29.5,29.99,ESE,112,5.0,6.0,53,0.00,,,0.00,WUHU21623XXSP,2013-02-24 13:20:00,
2013-02-24 07:24:00,45.7,29.5,29.99,SE,135,6.0,6.0,53,0.00,,,0.00,WUHU21623XXSP,2013-02-24 13:24:00,
2013-02-24 07:25:00,45.7,29.5,29.99,ESE,122,3.0,6.0,53,0.00,,,0.00,WUHU21623XXSP,2013-02-24 13:25:00,
2013-02-24 07:29:00,45.7,29.9,29.99,ENE,67,3.0,6.0,54,0.00,,,0.00,WUHU21623XXSP,2013-02-24 13:29:00,
2013-02-24 07:30:00,45.7,29.9,29.99,ESE,112,5.0,6.0,54,0.00,,,0.00,WUHU21623XXSP,2013-02-24 13:30:00,
2013-02-24 07:31:00,45.7,29.9,29.99,ESE,108,4.0,6.0,54,0.00,,,0.00,WUHU21623XXSP,2013-02-24 13:31:00,
2013-02-24 07:34:00,45.7,29.9,29.99,ESE,120,4.0,7.0,54,0.00,,,0.00,WUHU21623XXSP,2013-02-24 13:34:00,
2013-02-24 07:35:00,45.7,29.9,29.99,ESE,111,4.0,7.0,54,0.00,,,0.00,WUHU21623XXSP,2013-02-24 13:35:00,
2013-02-24 07:36:00,45.9,30.1,29.99,ESE,112,5.0,7.0,54,0.00,,,0.00,WUHU21623XXSP,2013-02-24 13:36:00,
2013-02-24 07:40:00,46.0,30.2,30.00,ESE,122,3.0,7.0,54,0.00,,,0.00,WUHU21623XXSP,2013-02-24 13:40:00,
2013-02-24 07:41:00,46.0,30.2,30.00,SE,135,4.0,7.0,54,0.00,,,0.00,WUHU21623XXSP,2013-02-24 13:41:00,
2013-02-24 07:45:00,46.0,30.2,30.00,SSE,149,3.0,6.0,54,0.00,,,0.00,WUHU21623XXSP,2013-02-24 13:45:00,
2013-02-24 07:46:00,46.0,30.2,30.00,SSE,153,3.0,6.0,54,0.00,,,0.00,WUHU21623XXSP,2013-02-24 13:46:00,
2013-02-24 07:47:00,46.0,30.2,30.00,East,90,4.0,6.0,54,0.00,,,0.00,WUHU21623XXSP,2013-02-24 13:47:00,
2013-02-24 07:50:00,46.2,30.4,30.00,ESE,112,7.0,10.0,54,0.00,,,0.00,WUHU21623XXSP,2013-02-24 13:50:00,
2013-02-24 07:51:00,46.2,30.4,30.00,SE,128,5.0,10.0,54,0.00,,,0.00,WUHU21623XXSP,2013-02-24 13:51:00,
2013-02-24 07:52:00,46.2,30.4,30.00,SE,135,9.0,10.0,54,0.00,,,0.00,WUHU21623XXSP,2013-02-24 13:52:00,
2013-02-24 07:55:00,46.2,30.8,30.01,SE,125,6.0,10.0,55,0.00,,,0.00,WUHU21623XXSP,2013-02-24 13:55:00,
2013-02-24 07:56:00,46.2,30.8,30.01,SE,127,5.0,10.0,55,0.00,,,0.00,WUHU21623XXSP,2013-02-24 13:56:00,
2013-02-24 07:57:00,46.2,30.8,30.01,SE,130,4.0,10.0,55,0.00,,,0.00,WUHU21623XXSP,2013-02-24 13:57:00,
2013-02-24 08:01:00,46.2,30.8,30.01,SE,127,4.0,9.0,55,0.00,,,0.00,WUHU21623XXSP,2013-02-24 14:01:00,
2013-02-24 08:02:00,46.4,31.0,30.01,ESE,122,5.0,8.0,55,0.00,,,0.00,WUHU21623XXSP,2013-02-24 14:02:00,
2013-02-24 08:06:00,46.6,31.2,30.01,ESE,107,4.0,8.0,55,0.00,,,0.00,WUHU21623XXSP,2013-02-24 14:06:00,
2013-02-24 08:07:00,46.6,31.2,30.01,ESE,115,4.0,8.0,55,0.00,,,0.00,WUHU21623XXSP,2013-02-24 14:07:00,
2013-02-24 08:08:00,46.6,31.2,30.01,SE,135,5.0,8.0,55,0.00,,,0.00,WUHU21623XXSP,2013-02-24 14:08:00,
2013-02-24 08:11:00,46.8,31.4,30.01,ESE,118,4.0,8.0,55,0.00,,,0.00,WUHU21623XXSP,2013-02-24 14:11:00,
2013-02-24 08:12:00,46.8,31.4,30.01,SE,138,3.0,6.0,55,0.00,,,0.00,WUHU21623XXSP,2013-02-24 14:12:00,
2013-02-24 08:13:00,46.8,31.4,30.01,SE,138,2.0,6.0,55,0.00,,,0.00,WUHU21623XXSP,2013-02-24 14:13:00,
2013-02-24 08:16:00,46.9,31.5,30.00,ESE,112,7.0,7.0,55,0.00,,,0.00,WUHU21623XXSP,2013-02-24 14:16:00,
2013-02-24 08:17:00,46.9,31.5,30.00,ESE,112,6.0,7.0,55,0.00,,,0.00,WUHU21623XXSP,2013-02-24 14:17:00,
2013-02-24 08:18:00,46.9,32.0,30.01,SE,135,9.0,10.0,56,0.00,,,0.00,WUHU21623XXSP,2013-02-24 14:18:00,
2013-02-24 08:21:00,47.1,32.1,30.01,ESE,112,7.0,10.0,56,0.00,,,0.00,WUHU21623XXSP,2013-02-24 14:21:00,
2013-02-24 08:22:00,47.1,32.1,30.01,SE,135,10.0,10.0,56,0.00,,,0.00,WUHU21623XXSP,2013-02-24 14:22:00,
2013-02-24 08:23:00,47.1,32.1,30.01,SE,129,6.0,10.0,56,0.00,,,0.00,WUHU21623XXSP,2013-02-24 14:23:00,
2013-02-24 08:26:00,47.3,32.3,30.01,ESE,112,8.0,10.0,56,0.00,,,0.00,WUHU21623XXSP,2013-02-24 14:26:00,
2013-02-24 08:27:00,47.3,32.3,30.01,ESE,112,5.0,10.0,56,0.00,,,0.00,WUHU21623XXSP,2013-02-24 14:27:00,
2013-02-24 08:28:00,47.3,32.3,30.01,East,101,5.0,10.0,56,0.00,,,0.00,WUHU21623XXSP,2013-02-24 14:28:00,
2013-02-24 08:29:00,47.3,32.3,30.01,ESE,112,6.0,10.0,56,0.00,,,0.00,WUHU21623XXSP,2013-02-24 14:29:00,
2013-02-24 08:31:00,47.5,32.5,30.01,ESE,112,10.0,11.0,56,0.00,,,0.00,WUHU21623XXSP,2013-02-24 14:31:00,
2013-02-24 08:32:00,47.5,32.5,30.01,ESE,112,5.0,11.0,56,0.00,,,0.00,WUHU21623XXSP,2013-02-24 14:32:00,
2013-02-24 08:33:00,47.5,32.5,30.01,ESE,119,7.0,12.0,56,0.00,,,0.00,WUHU21623XXSP,2013-02-24 14:33:00,
2013-02-24 08:34:00,47.7,32.7,30.01,SE,127,6.0,12.0,56,0.00,,,0.00,WUHU21623XXSP,2013-02-24 14:34:00,
2013-02-24 08:36:00,47.7,32.7,30.01,ESE,112,8.0,12.0,56,0.00,,,0.00,WUHU21623XXSP,2013-02-24 14:36:00,
2013-02-24 08:37:00,47.7,32.7,30.01,ESE,122,4.0,12.0,56,0.00,,,0.00,WUHU21623XXSP,2013-02-24 14:37:00,
2013-02-24 08:38:00,47.8,32.8,30.01,SE,135,4.0,12.0,56,0.00,,,0.00,WUHU21623XXSP,2013-02-24 14:38:00,
2013-02-24 08:39:00,47.8,32.8,30.01,ESE,113,4.0,12.0,56,0.00,,,0.00,WUHU21623XXSP,2013-02-24 14:39:00,
2013-02-24 08:41:00,48.0,33.0,30.01,ESE,116,5.0,12.0,56,0.00,,,0.00,WUHU21623XXSP,2013-02-24 14:41:00,
2013-02-24 08:42:00,48.0,33.0,30.01,SE,135,6.0,12.0,56,0.00,,,0.00,WUHU21623XXSP,2013-02-24 14:42:00,
2013-02-24 08:43:00,48.0,33.5,30.02,SE,127,6.0,9.0,57,0.00,,,0.00,WUHU21623XXSP,2013-02-24 14:43:00,
2013-02-24 08:44:00,48.0,33.0,30.01,SE,135,6.0,9.0,56,0.00,,,0.00,WUHU21623XXSP,2013-02-24 14:44:00,
2013-02-24 08:47:00,48.2,33.7,30.01,SE,125,5.0,10.0,57,0.00,,,0.00,WUHU21623XXSP,2013-02-24 14:47:00,
2013-02-24 08:48:00,48.2,33.7,30.02,SSE,157,7.0,12.0,57,0.00,,,0.00,WUHU21623XXSP,2013-02-24 14:48:00,
2013-02-24 08:49:00,48.4,33.8,30.01,SE,135,10.0,12.0,57,0.00,,,0.00,WUHU21623XXSP,2013-02-24 14:49:00,
2013-02-24 08:52:00,48.4,33.8,30.02,ESE,112,8.0,12.0,57,0.00,,,0.00,WUHU21623XXSP,2013-02-24 14:52:00,
2013-02-24 08:53:00,48.6,34.0,30.02,SE,135,9.0,12.0,57,0.00,,,0.00,WUHU21623XXSP,2013-02-24 14:53:00,
2013-02-24 08:54:00,48.6,34.0,30.01,ESE,110,7.0,12.0,57,0.00,,,0.00,WUHU21623XXSP,2013-02-24 14:54:00,
2013-02-24 08:57:00,48.7,34.1,30.02,ESE,112,10.0,12.0,57,0.00,,,0.00,WUHU21623XXSP,2013-02-24 14:57:00,
2013-02-24 08:58:00,48.7,34.1,30.02,East,90,11.0,11.0,57,0.00,,,0.00,WUHU21623XXSP,2013-02-24 14:58:00,
2013-02-24 09:00:00,48.7,34.1,30.02,SE,127,11.0,18.0,57,0.00,,,0.00,WUHU21623XXSP,2013-02-24 15:00:00,
2013-02-24 09:02:00,48.9,34.3,30.01,ESE,112,10.0,18.0,57,0.00,,,0.00,WUHU21623XXSP,2013-02-24 15:02:00,
2013-02-24 09:03:00,48.9,34.3,30.02,SSE,157,10.0,18.0,57,0.00,,,0.00,WUHU21623XXSP,2013-02-24 15:03:00,
2013-02-24 09:05:00,49.1,34.5,30.01,SE,132,7.0,18.0,57,0.00,,,0.00,WUHU21623XXSP,2013-02-24 15:05:00,
2013-02-24 09:07:00,49.3,34.6,30.01,SE,146,6.0,18.0,57,0.00,,,0.00,WUHU21623XXSP,2013-02-24 15:07:00,
2013-02-24 09:08:00,49.3,34.6,30.01,SE,137,6.0,12.0,57,0.00,,,0.00,WUHU21623XXSP,2013-02-24 15:08:00,
2013-02-24 09:09:00,49.3,34.6,30.01,SE,135,9.0,12.0,57,0.00,,,0.00,WUHU21623XXSP,2013-02-24 15:09:00,
2013-02-24 09:10:00,49.3,34.6,30.01,SE,143,4.0,12.0,57,0.00,,,0.00,WUHU21623XXSP,2013-02-24 15:10:00,
2013-02-24 09:12:00,49.6,35.0,30.01,SE,136,8.0,12.0,57,0.00,,,0.00,WUHU21623XXSP,2013-02-24 15:12:00,
2013-02-24 09:14:00,49.6,35.0,30.01,SE,139,8.0,12.0,57,0.00,,,0.00,WUHU21623XXSP,2013-02-24 15:14:00,
2013-02-24 09:15:00,49.6,35.0,30.01,ESE,123,7.0,13.0,57,0.00,,,0.00,WUHU21623XXSP,2013-02-24 15:15:00,
2013-02-24 09:17:00,49.8,35.6,30.02,SE,138,7.0,13.0,58,0.00,,,0.00,WUHU21623XXSP,2013-02-24 15:17:00,
2013-02-24 09:19:00,49.8,35.6,30.02,SE,132,7.0,13.0,58,0.00,,,0.00,WUHU21623XXSP,2013-02-24 15:19:00,
2013-02-24 09:20:00,50.2,35.9,30.02,SE,130,4.0,13.0,58,0.00,,,0.00,WUHU21623XXSP,2013-02-24 15:20:00,
2013-02-24 09:23:00,50.7,36.9,30.01,SSE,157,13.0,13.0,59,0.00,,,0.00,WUHU21623XXSP,2013-02-24 15:23:00,
2013-02-24 09:24:00,50.7,36.9,30.01,SE,144,10.0,13.0,59,0.00,,,0.00,WUHU21623XXSP,2013-02-24 15:24:00,
2013-02-24 09:25:00,51.1,37.2,30.01,SE,145,8.0,13.0,59,0.00,,,0.00,WUHU21623XXSP,2013-02-24 15:25:00,
2013-02-24 09:29:00,51.6,37.2,30.01,SE,130,7.0,13.0,58,0.00,,,0.00,WUHU21623XXSP,2013-02-24 15:29:00,
2013-02-24 09:30:00,51.8,37.4,30.01,SE,135,7.0,13.0,58,0.00,,,0.00,WUHU21623XXSP,2013-02-24 15:30:00,
2013-02-24 09:31:00,52.0,37.6,30.01,SE,136,7.0,13.0,58,0.00,,,0.00,WUHU21623XXSP,2013-02-24 15:31:00,
2013-02-24 09:34:00,52.2,37.3,30.01,SE,141,5.0,12.0,57,0.00,,,0.00,WUHU21623XXSP,2013-02-24 15:34:00,
2013-02-24 09:35:00,52.2,37.3,30.01,SSE,157,9.0,12.0,57,0.00,,,0.00,WUHU21623XXSP,2013-02-24 15:35:00,
2013-02-24 09:36:00,52.3,37.5,30.01,SE,135,9.0,12.0,57,0.00,,,0.00,WUHU21623XXSP,2013-02-24 15:36:00,
2013-02-24 09:39:00,52.3,37.5,30.01,SSE,163,10.0,13.0,57,0.00,,,0.00,WUHU21623XXSP,2013-02-24 15:39:00,
2013-02-24 09:40:00,52.3,37.5,30.01,SSE,157,12.0,13.0,57,0.00,,,0.00,WUHU21623XXSP,2013-02-24 15:40:00,
2013-02-24 09:41:00,52.3,37.5,30.01,SSE,150,9.0,13.0,57,0.00,,,0.00,WUHU21623XXSP,2013-02-24 15:41:00,
2013-02-24 09:44:00,52.3,37.5,30.01,SSE,156,8.0,13.0,57,0.00,,,0.00,WUHU21623XXSP,2013-02-24 15:44:00,
2013-02-24 09:45:00,52.3,37.5,30.01,SE,135,10.0,13.0,57,0.00,,,0.00,WUHU21623XXSP,2013-02-24 15:45:00,
2013-02-24 09:46:00,52.3,37.5,30.01,SE,135,11.0,13.0,57,0.00,,,0.00,WUHU21623XXSP,2013-02-24 15:46:00,
2013-02-24 09:50:00,52.3,37.5,30.01,ESE,112,6.0,12.0,57,0.00,,,0.00,WUHU21623XXSP,2013-02-24 15:50:00,
2013-02-24 09:51:00,52.3,37.5,30.01,SSE,153,9.0,13.0,57,0.00,,,0.00,WUHU21623XXSP,2013-02-24 15:51:00,
2013-02-24 09:55:00,52.5,37.6,30.01,SSE,157,8.0,13.0,57,0.00,,,0.00,WUHU21623XXSP,2013-02-24 15:55:00,
2013-02-24 09:56:00,52.7,37.8,30.01,SE,135,10.0,13.0,57,0.00,,,0.00,WUHU21623XXSP,2013-02-24 15:56:00,
2013-02-24 10:00:00,52.9,38.0,30.01,SE,135,9.0,12.0,57,0.00,,,0.00,WUHU21623XXSP,2013-02-24 16:00:00,
2013-02-24 10:01:00,52.9,38.0,30.01,SE,135,9.0,12.0,57,0.00,,,0.00,WUHU21623XXSP,2013-02-24 16:01:00,
2013-02-24 10:02:00,52.9,38.0,30.01,SE,141,7.0,12.0,57,0.00,,,0.00,WUHU21623XXSP,2013-02-24 16:02:00,
2013-02-24 10:05:00,52.9,38.4,30.01,SE,135,10.0,13.0,58,0.00,,,0.00,WUHU21623XXSP,2013-02-24 16:05:00,
2013-02-24 10:06:00,52.9,38.4,30.01,SE,135,10.0,13.0,58,0.00,,,0.00,WUHU21623XXSP,2013-02-24 16:06:00,
2013-02-24 10:07:00,53.2,38.8,30.01,SSE,149,9.0,13.0,58,0.00,,,0.00,WUHU21623XXSP,2013-02-24 16:07:00,
2013-02-24 10:10:00,53.4,39.0,30.00,SSE,157,8.0,13.0,58,0.00,,,0.00,WUHU21623XXSP,2013-02-24 16:10:00,
2013-02-24 10:11:00,53.4,39.0,30.00,SSE,157,8.0,13.0,58,0.00,,,0.00,WUHU21623XXSP,2013-02-24 16:11:00,
2013-02-24 10:12:00,53.4,39.0,30.00,SSE,157,9.0,13.0,58,0.00,,,0.00,WUHU21623XXSP,2013-02-24 16:12:00,
2013-02-24 10:15:00,53.6,39.2,30.00,SSE,157,8.0,12.0,58,0.00,,,0.00,WUHU21623XXSP,2013-02-24 16:15:00,
2013-02-24 10:16:00,53.8,39.3,30.00,SE,140,6.0,12.0,58,0.00,,,0.00,WUHU21623XXSP,2013-02-24 16:16:00,
2013-02-24 10:17:00,53.8,39.3,30.00,SE,135,9.0,12.0,58,0.00,,,0.00,WUHU21623XXSP,2013-02-24 16:17:00,
2013-02-24 10:21:00,54.0,39.5,30.00,SSE,157,9.0,12.0,58,0.00,,,0.00,WUHU21623XXSP,2013-02-24 16:21:00,
2013-02-24 10:22:00,54.0,39.5,30.00,SE,141,9.0,12.0,58,0.00,,,0.00,WUHU21623XXSP,2013-02-24 16:22:00,
2013-02-24 10:26:00,54.3,39.8,29.99,SE,126,9.0,13.0,58,0.00,,,0.00,WUHU21623XXSP,2013-02-24 16:26:00,
2013-02-24 10:27:00,54.3,39.8,29.99,SE,130,10.0,13.0,58,0.00,,,0.00,WUHU21623XXSP,2013-02-24 16:27:00,
2013-02-24 10:31:00,54.7,40.1,29.99,ESE,122,9.0,13.0,58,0.00,,,0.00,WUHU21623XXSP,2013-02-24 16:31:00,
2013-02-24 10:32:00,54.7,40.1,29.99,SE,138,10.0,13.0,58,0.00,,,0.00,WUHU21623XXSP,2013-02-24 16:32:00,
2013-02-24 10:36:00,55.0,40.6,29.99,SE,136,8.0,13.0,58,0.00,,,0.00,WUHU21623XXSP,2013-02-24 16:36:00,
2013-02-24 10:37:00,55.2,40.6,29.99,ESE,112,10.0,13.0,58,0.00,,,0.00,WUHU21623XXSP,2013-02-24 16:37:00,
2013-02-24 10:38:00,55.2,40.6,29.99,South,180,10.0,13.0,58,0.00,,,0.00,WUHU21623XXSP,2013-02-24 16:38:00,
2013-02-24 10:41:00,55.6,41.0,29.99,ESE,121,3.0,12.0,58,0.00,,,0.00,WUHU21623XXSP,2013-02-24 16:41:00,
2013-02-24 10:42:00,55.6,41.0,29.99,SE,135,5.0,12.0,58,0.00,,,0.00,WUHU21623XXSP,2013-02-24 16:42:00,
2013-02-24 10:43:00,55.6,41.0,29.99,SE,135,9.0,11.0,58,0.00,,,0.00,WUHU21623XXSP,2013-02-24 16:43:00,
2013-02-24 10:46:00,55.9,41.3,29.99,SE,136,12.0,18.0,58,0.00,,,0.00,WUHU21623XXSP,2013-02-24 16:46:00,
2013-02-24 10:47:00,55.9,41.3,29.99,SE,144,11.0,18.0,58,0.00,,,0.00,WUHU21623XXSP,2013-02-24 16:47:00,
2013-02-24 10:48:00,55.9,41.3,29.99,SSE,148,10.0,18.0,58,0.00,,,0.00,WUHU21623XXSP,2013-02-24 16:48:00,
2013-02-24 10:51:00,56.3,41.2,29.99,SE,135,8.0,18.0,57,0.00,,,0.00,WUHU21623XXSP,2013-02-24 16:51:00,
2013-02-24 10:52:00,56.3,41.2,29.99,SE,135,13.0,18.0,57,0.00,,,0.00,WUHU21623XXSP,2013-02-24 16:52:00,
2013-02-24 10:54:00,56.5,41.4,29.99,SE,127,10.0,18.0,57,0.00,,,0.00,WUHU21623XXSP,2013-02-24 16:54:00,
2013-02-24 10:56:00,56.7,41.6,29.99,SE,141,8.0,13.0,57,0.00,,,0.00,WUHU21623XXSP,2013-02-24 16:56:00,
2013-02-24 10:57:00,56.7,41.6,29.99,SE,140,7.0,13.0,57,0.00,,,0.00,WUHU21623XXSP,2013-02-24 16:57:00,
2013-02-24 10:59:00,56.8,41.8,29.98,ESE,112,10.0,21.0,57,0.00,,,0.00,WUHU21623XXSP,2013-02-24 16:59:00,
2013-02-24 11:01:00,57.0,41.9,29.98,SSE,157,12.0,21.0,57,0.00,,,0.00,WUHU21623XXSP,2013-02-24 17:01:00,
2013-02-24 11:02:00,57.0,42.0,29.98,SSE,149,10.0,21.0,57,0.00,,,0.00,WUHU21623XXSP,2013-02-24 17:02:00,
2013-02-24 11:04:00,57.2,42.1,29.98,SE,124,8.0,21.0,57,0.00,,,0.00,WUHU21623XXSP,2013-02-24 17:04:00,
2013-02-24 11:07:00,57.6,42.4,29.98,SE,135,13.0,21.0,57,0.00,,,0.00,WUHU21623XXSP,2013-02-24 17:07:00,
2013-02-24 11:09:00,57.7,42.6,29.98,SSE,157,9.0,13.0,57,0.00,,,0.00,WUHU21623XXSP,2013-02-24 17:09:00,
2013-02-24 11:12:00,57.9,42.8,29.98,SE,135,7.0,13.0,57,0.00,,,0.00,WUHU21623XXSP,2013-02-24 17:12:00,
2013-02-24 11:13:00,57.9,42.8,29.98,SSE,157,9.0,13.0,57,0.00,,,0.00,WUHU21623XXSP,2013-02-24 17:13:00,
2013-02-24 11:14:00,58.3,43.1,29.97,SE,128,9.0,13.0,57,0.00,,,0.00,WUHU21623XXSP,2013-02-24 17:14:00,
2013-02-24 11:17:00,58.3,43.1,29.97,SE,131,11.0,14.0,57,0.00,,,0.00,WUHU21623XXSP,2013-02-24 17:17:00,
2013-02-24 11:18:00,58.5,43.3,29.97,SE,126,9.0,14.0,57,0.00,,,0.00,WUHU21623XXSP,2013-02-24 17:18:00,
2013-02-24 11:20:00,58.6,43.4,29.97,SE,129,8.0,14.0,57,0.00,,,0.00,WUHU21623XXSP,2013-02-24 17:20:00,
2013-02-24 11:22:00,58.8,43.6,29.97,SE,135,10.0,15.0,57,0.00,,,0.00,WUHU21623XXSP,2013-02-24 17:22:00,
2013-02-24 11:23:00,58.8,43.6,29.97,ESE,112,12.0,15.0,57,0.00,,,0.00,WUHU21623XXSP,2013-02-24 17:23:00,
2013-02-24 11:25:00,58.8,43.6,29.97,SE,135,16.0,16.0,57,0.00,,,0.00,WUHU21623XXSP,2013-02-24 17:25:00,
2013-02-24 11:27:00,58.8,43.6,29.97,SSE,157,11.0,18.0,57,0.00,,,0.00,WUHU21623XXSP,2013-02-24 17:27:00,
2013-02-24 11:28:00,58.8,43.1,29.97,ESE,112,13.0,18.0,56,0.00,,,0.00,WUHU21623XXSP,2013-02-24 17:28:00,
2013-02-24 11:30:00,59.2,43.6,29.97,SE,143,10.0,18.0,56,0.00,,,0.00,WUHU21623XXSP,2013-02-24 17:30:00,
2013-02-24 11:32:00,59.4,43.6,29.97,SE,132,10.0,18.0,56,0.00,,,0.00,WUHU21623XXSP,2013-02-24 17:32:00,
2013-02-24 11:33:00,59.5,43.8,29.97,SSE,149,9.0,18.0,56,0.00,,,0.00,WUHU21623XXSP,2013-02-24 17:33:00,
2013-02-24 11:36:00,59.5,43.8,29.97,SSE,157,10.0,17.0,56,0.00,,,0.00,WUHU21623XXSP,2013-02-24 17:36:00,
2013-02-24 11:37:00,59.7,44.0,29.97,SSE,155,9.0,17.0,56,0.00,,,0.00,WUHU21623XXSP,2013-02-24 17:37:00,
2013-02-24 11:38:00,59.9,43.6,29.97,SSE,157,7.0,17.0,55,0.00,,,0.00,WUHU21623XXSP,2013-02-24 17:38:00,
2013-02-24 11:39:00,59.9,43.6,29.97,SSE,157,7.0,17.0,55,0.00,,,0.00,WUHU21623XXSP,2013-02-24 17:39:00,
2013-02-24 11:41:00,60.1,43.8,29.97,SE,135,8.0,13.0,55,0.00,,,0.00,WUHU21623XXSP,2013-02-24 17:41:00,
2013-02-24 11:42:00,60.1,43.8,29.97,South,180,11.0,12.0,55,0.00,,,0.00,WUHU21623XXSP,2013-02-24 17:42:00,
2013-02-24 11:44:00,60.3,44.0,29.97,SSE,158,10.0,17.0,55,0.00,,,0.00,WUHU21623XXSP,2013-02-24 17:44:00,
2013-02-24 11:46:00,60.4,44.2,29.96,SE,128,8.0,17.0,55,0.00,,,0.00,WUHU21623XXSP,2013-02-24 17:46:00,
2013-02-24 11:48:00,60.4,44.2,29.96,SSE,167,11.0,17.0,55,0.00,,,0.00,WUHU21623XXSP,2013-02-24 17:48:00,
2013-02-24 11:49:00,60.6,44.3,29.96,South,178,9.0,17.0,55,0.00,,,0.00,WUHU21623XXSP,2013-02-24 17:49:00,
2013-02-24 11:51:00,60.6,44.3,29.96,SE,140,6.0,17.0,55,0.00,,,0.00,WUHU21623XXSP,2013-02-24 17:51:00,
2013-02-24 11:53:00,60.6,43.8,29.96,ESE,122,10.0,16.0,54,0.00,,,0.00,WUHU21623XXSP,2013-02-24 17:53:00,
2013-02-24 11:54:00,61.0,44.2,29.96,SE,127,10.0,16.0,54,0.00,,,0.00,WUHU21623XXSP,2013-02-24 17:54:00,
2013-02-24 11:56:00,61.0,44.2,29.96,SSE,157,10.0,17.0,54,0.00,,,0.00,WUHU21623XXSP,2013-02-24 17:56:00,
2013-02-24 11:58:00,61.2,44.3,29.95,South,178,10.0,17.0,54,0.00,,,0.00,WUHU21623XXSP,2013-02-24 17:58:00,
2013-02-24 11:59:00,61.2,44.3,29.95,South,185,8.0,17.0,54,0.00,,,0.00,WUHU21623XXSP,2013-02-24 17:59:00,
2013-02-24 12:01:00,61.3,44.0,29.95,South,180,9.0,17.0,53,0.00,,,0.00,WUHU21623XXSP,2013-02-24 18:01:00,
2013-02-24 12:03:00,61.5,44.2,29.95,SSE,157,10.0,17.0,53,0.00,,,0.00,WUHU21623XXSP,2013-02-24 18:03:00,
2013-02-24 12:04:00,61.5,44.2,29.95,SSE,157,11.0,17.0,53,0.00,,,0.00,WUHU21623XXSP,2013-02-24 18:04:00,
2013-02-24 12:07:00,61.7,44.3,29.95,ESE,112,12.0,18.0,53,0.00,,,0.00,WUHU21623XXSP,2013-02-24 18:07:00,
2013-02-24 12:08:00,61.9,44.0,29.95,SE,139,10.0,18.0,52,0.00,,,0.00,WUHU21623XXSP,2013-02-24 18:08:00,
2013-02-24 12:09:00,61.9,44.0,29.94,SE,139,7.0,18.0,52,0.00,,,0.00,WUHU21623XXSP,2013-02-24 18:09:00,
2013-02-24 12:12:00,62.1,44.2,29.94,SE,144,8.0,18.0,52,0.00,,,0.00,WUHU21623XXSP,2013-02-24 18:12:00,
2013-02-24 12:13:00,62.2,44.3,29.94,SE,139,11.0,18.0,52,0.00,,,0.00,WUHU21623XXSP,2013-02-24 18:13:00,
2013-02-24 12:14:00,62.2,44.3,29.94,SE,142,8.0,18.0,52,0.00,,,0.00,WUHU21623XXSP,2013-02-24 18:14:00,
2013-02-24 12:15:00,62.2,44.3,29.94,SSE,152,7.0,18.0,52,0.00,,,0.00,WUHU21623XXSP,2013-02-24 18:15:00,
2013-02-24 12:17:00,62.4,44.5,29.94,SE,135,16.0,18.0,52,0.00,,,0.00,WUHU21623XXSP,2013-02-24 18:17:00,
2013-02-24 12:18:00,62.4,44.0,29.94,SSE,155,13.0,18.0,51,0.00,,,0.00,WUHU21623XXSP,2013-02-24 18:18:00,
2013-02-24 12:20:00,62.4,44.0,29.94,SSE,153,11.0,18.0,51,0.00,,,0.00,WUHU21623XXSP,2013-02-24 18:20:00,
2013-02-24 12:22:00,62.6,44.7,29.94,SSE,153,5.0,16.0,52,0.00,,,0.00,WUHU21623XXSP,2013-02-24 18:22:00,
2013-02-24 12:24:00,62.8,44.8,29.94,SE,140,5.0,16.0,52,0.00,,,0.00,WUHU21623XXSP,2013-02-24 18:24:00,
2013-02-24 12:25:00,62.8,44.8,29.94,ESE,112,9.0,16.0,52,0.00,,,0.00,WUHU21623XXSP,2013-02-24 18:25:00,
2013-02-24 12:26:00,62.8,44.8,29.94,ESE,112,9.0,16.0,52,0.00,,,0.00,WUHU21623XXSP,2013-02-24 18:26:00,
2013-02-24 12:27:00,63.0,45.0,29.94,SSE,157,11.0,16.0,52,0.00,,,0.00,WUHU21623XXSP,2013-02-24 18:27:00,
2013-02-24 12:29:00,63.0,45.0,29.94,SE,125,9.0,13.0,52,0.00,,,0.00,WUHU21623XXSP,2013-02-24 18:29:00,
2013-02-24 12:31:00,63.1,45.2,29.94,SE,131,8.0,12.0,52,0.00,,,0.00,WUHU21623XXSP,2013-02-24 18:31:00,
2013-02-24 12:33:00,63.3,45.3,29.93,SE,135,11.0,12.0,52,0.00,,,0.00,WUHU21623XXSP,2013-02-24 18:33:00,
2013-02-24 12:34:00,63.3,45.3,29.93,SSE,157,11.0,17.0,52,0.00,,,0.00,WUHU21623XXSP,2013-02-24 18:34:00,
2013-02-24 12:36:00,63.3,44.8,29.93,SE,145,9.0,17.0,51,0.00,,,0.00,WUHU21623XXSP,2013-02-24 18:36:00,
2013-02-24 12:38:00,63.5,45.0,29.93,SE,132,6.0,17.0,51,0.00,,,0.00,WUHU21623XXSP,2013-02-24 18:38:00,
2013-02-24 12:39:00,63.7,45.2,29.93,ESE,112,9.0,17.0,51,0.00,,,0.00,WUHU21623XXSP,2013-02-24 18:39:00,
2013-02-24 12:41:00,63.7,45.2,29.93,ESE,118,8.0,17.0,51,0.00,,,0.00,WUHU21623XXSP,2013-02-24 18:41:00,
2013-02-24 12:43:00,63.7,45.2,29.92,ESE,118,7.0,17.0,51,0.00,,,0.00,WUHU21623XXSP,2013-02-24 18:43:00,
2013-02-24 12:44:00,64.0,45.5,29.92,SE,135,10.0,12.0,51,0.00,,,0.00,WUHU21623XXSP,2013-02-24 18:44:00,
2013-02-24 12:46:00,64.0,45.5,29.92,ESE,120,8.0,11.0,51,0.00,,,0.00,WUHU21623XXSP,2013-02-24 18:46:00,
2013-02-24 12:47:00,64.0,45.5,29.92,SE,135,12.0,12.0,51,0.00,,,0.00,WUHU21623XXSP,2013-02-24 18:47:00,
2013-02-24 12:48:00,64.2,45.6,29.92,ESE,112,15.0,15.0,51,0.00,,,0.00,WUHU21623XXSP,2013-02-24 18:48:00,
2013-02-24 12:49:00,64.2,45.2,29.92,SE,135,12.0,16.0,50,0.00,,,0.00,WUHU21623XXSP,2013-02-24 18:49:00,
2013-02-24 12:51:00,64.2,45.2,29.92,ESE,112,11.0,16.0,50,0.00,,,0.00,WUHU21623XXSP,2013-02-24 18:51:00,
2013-02-24 12:52:00,64.2,45.2,29.92,ESE,112,9.0,16.0,50,0.00,,,0.00,WUHU21623XXSP,2013-02-24 18:52:00,
2013-02-24 12:53:00,64.2,45.2,29.92,ESE,121,8.0,16.0,50,0.00,,,0.00,WUHU21623XXSP,2013-02-24 18:53:00,
2013-02-24 12:54:00,64.6,45.5,29.92,SSE,157,13.0,16.0,50,0.00,,,0.00,WUHU21623XXSP,2013-02-24 18:54:00,
2013-02-24 12:57:00,64.6,45.5,29.91,South,180,6.0,16.0,50,0.00,,,0.00,WUHU21623XXSP,2013-02-24 18:57:00,
2013-02-24 12:58:00,64.8,45.7,29.91,SE,135,16.0,16.0,50,0.00,,,0.00,WUHU21623XXSP,2013-02-24 18:58:00,
2013-02-24 12:59:00,64.6,45.5,29.91,SE,135,12.0,17.0,50,0.00,,,0.00,WUHU21623XXSP,2013-02-24 18:59:00,
2013-02-24 13:02:00,64.8,45.1,29.91,SSE,157,8.0,17.0,49,0.00,,,0.00,WUHU21623XXSP,2013-02-24 19:02:00,
2013-02-24 13:03:00,64.9,45.3,29.91,SSE,158,8.0,17.0,49,0.00,,,0.00,WUHU21623XXSP,2013-02-24 19:03:00,
2013-02-24 13:04:00,64.9,45.3,29.91,SE,142,7.0,17.0,49,0.00,,,0.00,WUHU21623XXSP,2013-02-24 19:04:00,
2013-02-24 13:07:00,65.1,45.4,29.91,ESE,110,10.0,17.0,49,0.00,,,0.00,WUHU21623XXSP,2013-02-24 19:07:00,
2013-02-24 13:09:00,65.1,45.4,29.90,ESE,112,9.0,17.0,49,0.00,,,0.00,WUHU21623XXSP,2013-02-24 19:09:00,
2013-02-24 13:10:00,65.1,45.4,29.90,ESE,112,11.0,16.0,49,0.00,,,0.00,WUHU21623XXSP,2013-02-24 19:10:00,
2013-02-24 13:12:00,65.1,45.4,29.90,ESE,115,9.0,16.0,49,0.00,,,0.00,WUHU21623XXSP,2013-02-24 19:12:00,
2013-02-24 13:13:00,65.1,45.4,29.90,ESE,112,13.0,16.0,49,0.00,,,0.00,WUHU21623XXSP,2013-02-24 19:13:00,
2013-02-24 13:14:00,65.3,45.6,29.90,ESE,105,11.0,16.0,49,0.00,,,0.00,WUHU21623XXSP,2013-02-24 19:14:00,
2013-02-24 13:15:00,65.3,45.6,29.90,East,93,10.0,16.0,49,0.00,,,0.00,WUHU21623XXSP,2013-02-24 19:15:00,
2013-02-24 13:18:00,65.5,45.8,29.90,SE,132,7.0,16.0,49,0.00,,,0.00,WUHU21623XXSP,2013-02-24 19:18:00,
2013-02-24 13:19:00,65.5,45.8,29.90,SE,135,12.0,16.0,49,0.00,,,0.00,WUHU21623XXSP,2013-02-24 19:19:00,
2013-02-24 13:20:00,65.5,45.8,29.90,SSE,147,9.0,16.0,49,0.00,,,0.00,WUHU21623XXSP,2013-02-24 19:20:00,
2013-02-24 13:23:00,65.7,46.0,29.89,SE,134,8.0,13.0,49,0.00,,,0.00,WUHU21623XXSP,2013-02-24 19:23:00,
2013-02-24 13:24:00,65.8,46.2,29.89,SE,126,7.0,13.0,49,0.00,,,0.00,WUHU21623XXSP,2013-02-24 19:24:00,
2013-02-24 13:26:00,65.8,46.2,29.89,SSE,157,12.0,13.0,49,0.00,,,0.00,WUHU21623XXSP,2013-02-24 19:26:00,
2013-02-24 13:28:00,66.0,45.8,29.89,SE,135,11.0,13.0,48,0.00,,,0.00,WUHU21623XXSP,2013-02-24 19:28:00,
2013-02-24 13:30:00,66.0,45.8,29.89,SE,144,7.0,13.0,48,0.00,,,0.00,WUHU21623XXSP,2013-02-24 19:30:00,
2013-02-24 13:31:00,66.0,45.8,29.89,ESE,112,8.0,13.0,48,0.00,,,0.00,WUHU21623XXSP,2013-02-24 19:31:00,
2013-02-24 13:33:00,66.0,45.8,29.88,SE,135,4.0,13.0,48,0.00,,,0.00,WUHU21623XXSP,2013-02-24 19:33:00,
2013-02-24 13:35:00,66.0,45.8,29.88,SE,129,10.0,15.0,48,0.00,,,0.00,WUHU21623XXSP,2013-02-24 19:35:00,
2013-02-24 13:36:00,66.0,45.8,29.88,SE,135,13.0,15.0,48,0.00,,,0.00,WUHU21623XXSP,2013-02-24 19:36:00,
2013-02-24 13:38:00,66.0,45.8,29.88,SE,133,10.0,15.0,48,0.00,,,0.00,WUHU21623XXSP,2013-02-24 19:38:00,
2013-02-24 13:40:00,66.2,45.9,29.88,ESE,112,9.0,15.0,48,0.00,,,0.00,WUHU21623XXSP,2013-02-24 19:40:00,
2013-02-24 13:41:00,66.2,45.9,29.88,ESE,112,17.0,17.0,48,0.00,,,0.00,WUHU21623XXSP,2013-02-24 19:41:00,
2013-02-24 13:43:00,66.4,46.1,29.88,ESE,112,12.0,17.0,48,0.00,,,0.00,WUHU21623XXSP,2013-02-24 19:43:00,
2013-02-24 13:45:00,66.4,46.1,29.88,SE,125,11.0,18.0,48,0.00,,,0.00,WUHU21623XXSP,2013-02-24 19:45:00,
2013-02-24 13:46:00,66.4,46.1,29.88,SE,128,9.0,18.0,48,0.00,,,0.00,WUHU21623XXSP,2013-02-24 19:46:00,
2013-02-24 13:48:00,66.6,46.3,29.88,SE,135,15.0,18.0,48,0.00,,,0.00,WUHU21623XXSP,2013-02-24 19:48:00,
2013-02-24 13:50:00,66.6,45.7,29.87,ESE,112,11.0,18.0,47,0.00,,,0.00,WUHU21623XXSP,2013-02-24 19:50:00,
2013-02-24 13:51:00,66.7,45.8,29.87,ESE,117,9.0,18.0,47,0.00,,,0.00,WUHU21623XXSP,2013-02-24 19:51:00,
2013-02-24 13:53:00,66.7,45.8,29.87,SE,135,11.0,18.0,47,0.00,,,0.00,WUHU21623XXSP,2013-02-24 19:53:00,
2013-02-24 13:55:00,66.7,45.8,29.86,SE,132,7.0,16.0,47,0.00,,,0.00,WUHU21623XXSP,2013-02-24 19:55:00,
2013-02-24 13:56:00,66.7,45.8,29.86,SE,144,5.0,16.0,47,0.00,,,0.00,WUHU21623XXSP,2013-02-24 19:56:00,
2013-02-24 13:58:00,66.9,46.0,29.86,SSE,151,10.0,18.0,47,0.00,,,0.00,WUHU21623XXSP,2013-02-24 19:58:00,
2013-02-24 14:00:00,66.9,46.0,29.86,SE,144,8.0,18.0,47,0.00,,,0.00,WUHU21623XXSP,2013-02-24 20:00:00,
2013-02-24 14:01:00,66.9,46.0,29.86,SE,135,8.0,18.0,47,0.00,,,0.00,WUHU21623XXSP,2013-02-24 20:01:00,
2013-02-24 14:03:00,66.9,46.0,29.86,SSE,157,9.0,18.0,47,0.00,,,0.00,WUHU21623XXSP,2013-02-24 20:03:00,
2013-02-24 14:04:00,66.9,46.0,29.86,SSE,153,8.0,18.0,47,0.00,,,0.00,WUHU21623XXSP,2013-02-24 20:04:00,
2013-02-24 14:06:00,67.1,45.6,29.86,SE,134,11.0,18.0,46,0.00,,,0.00,WUHU21623XXSP,2013-02-24 20:06:00,
2013-02-24 14:08:00,67.1,45.6,29.86,SE,138,11.0,18.0,46,0.00,,,0.00,WUHU21623XXSP,2013-02-24 20:08:00,
2013-02-24 14:09:00,67.1,45.6,29.86,ESE,112,11.0,18.0,46,0.00,,,0.00,WUHU21623XXSP,2013-02-24 20:09:00,
2013-02-24 14:11:00,67.3,45.7,29.86,SE,136,9.0,18.0,46,0.00,,,0.00,WUHU21623XXSP,2013-02-24 20:11:00,
2013-02-24 14:13:00,67.3,45.7,29.85,SE,146,11.0,18.0,46,0.00,,,0.00,WUHU21623XXSP,2013-02-24 20:13:00,
2013-02-24 14:14:00,67.3,45.7,29.85,SE,140,9.0,18.0,46,0.00,,,0.00,WUHU21623XXSP,2013-02-24 20:14:00,
2013-02-24 14:16:00,67.3,45.7,29.85,SE,135,13.0,18.0,46,0.00,,,0.00,WUHU21623XXSP,2013-02-24 20:16:00,
2013-02-24 14:17:00,67.3,45.7,29.85,SE,135,16.0,18.0,46,0.00,,,0.00,WUHU21623XXSP,2013-02-24 20:17:00,
2013-02-24 14:19:00,67.3,45.1,29.85,ESE,112,20.0,20.0,45,0.00,,,0.00,WUHU21623XXSP,2013-02-24 20:19:00,
2013-02-24 14:21:00,67.5,45.3,29.85,SE,135,9.0,20.0,45,0.00,,,0.00,WUHU21623XXSP,2013-02-24 20:21:00,
2013-02-24 14:22:00,67.6,45.4,29.85,SE,135,10.0,20.0,45,0.00,,,0.00,WUHU21623XXSP,2013-02-24 20:22:00,
2013-02-24 14:24:00,67.6,45.4,29.84,SE,130,9.0,20.0,45,0.00,,,0.00,WUHU21623XXSP,2013-02-24 20:24:00,
2013-02-24 14:27:00,67.6,45.4,29.84,SE,131,13.0,20.0,45,0.00,,,0.00,WUHU21623XXSP,2013-02-24 20:27:00,
2013-02-24 14:29:00,67.6,45.4,29.84,SE,135,13.0,20.0,45,0.00,,,0.00,WUHU21623XXSP,2013-02-24 20:29:00,
2013-02-24 14:32:00,67.8,45.6,29.84,SSE,157,13.0,20.0,45,0.00,,,0.00,WUHU21623XXSP,2013-02-24 20:32:00,
2013-02-24 14:34:00,67.8,45.6,29.84,SSE,157,9.0,20.0,45,0.00,,,0.00,WUHU21623XXSP,2013-02-24 20:34:00,
2013-02-24 14:37:00,67.8,45.6,29.84,SE,127,7.0,20.0,45,0.00,,,0.00,WUHU21623XXSP,2013-02-24 20:37:00,
2013-02-24 14:39:00,67.8,45.6,29.84,SE,145,7.0,14.0,45,0.00,,,0.00,WUHU21623XXSP,2013-02-24 20:39:00,
2013-02-24 14:42:00,68.2,45.9,29.84,SSE,150,9.0,17.0,45,0.00,,,0.00,WUHU21623XXSP,2013-02-24 20:42:00,
2013-02-24 14:45:00,68.2,45.9,29.84,SE,132,9.0,17.0,45,0.00,,,0.00,WUHU21623XXSP,2013-02-24 20:45:00,
2013-02-24 14:47:00,68.2,45.3,29.83,SSE,157,10.0,17.0,44,0.00,,,0.00,WUHU21623XXSP,2013-02-24 20:47:00,
2013-02-24 14:48:00,68.2,45.3,29.83,SE,134,10.0,17.0,44,0.00,,,0.00,WUHU21623XXSP,2013-02-24 20:48:00,
2013-02-24 14:50:00,68.4,45.5,29.83,ESE,114,9.0,17.0,44,0.00,,,0.00,WUHU21623XXSP,2013-02-24 20:50:00,
2013-02-24 14:52:00,68.4,45.5,29.83,SE,135,16.0,17.0,44,0.00,,,0.00,WUHU21623XXSP,2013-02-24 20:52:00,
2013-02-24 14:53:00,68.4,45.5,29.83,South,180,13.0,20.0,44,0.00,,,0.00,WUHU21623XXSP,2013-02-24 20:53:00,
2013-02-24 14:55:00,68.5,45.7,29.83,SSE,157,15.0,20.0,44,0.00,,,0.00,WUHU21623XXSP,2013-02-24 20:55:00,
2013-02-24 14:57:00,68.5,45.7,29.83,South,180,15.0,20.0,44,0.00,,,0.00,WUHU21623XXSP,2013-02-24 20:57:00,
2013-02-24 14:58:00,68.5,45.7,29.83,SE,135,13.0,20.0,44,0.00,,,0.00,WUHU21623XXSP,2013-02-24 20:58:00,
2013-02-24 15:00:00,68.5,45.7,29.83,SE,132,12.0,20.0,44,0.00,,,0.00,WUHU21623XXSP,2013-02-24 21:00:00,
2013-02-24 15:03:00,68.5,45.7,29.83,SE,125,11.0,21.0,44,0.00,,,0.00,WUHU21623XXSP,2013-02-24 21:03:00,
2013-02-24 15:05:00,68.7,45.8,29.82,SE,126,8.0,21.0,44,0.00,,,0.00,WUHU21623XXSP,2013-02-24 21:05:00,
2013-02-24 15:08:00,68.7,45.8,29.82,SE,135,11.0,21.0,44,0.00,,,0.00,WUHU21623XXSP,2013-02-24 21:08:00,
2013-02-24 15:10:00,68.7,45.8,29.82,ESE,112,10.0,21.0,44,0.00,,,0.00,WUHU21623XXSP,2013-02-24 21:10:00,
2013-02-24 15:11:00,68.7,45.8,29.82,ESE,112,10.0,21.0,44,0.00,,,0.00,WUHU21623XXSP,2013-02-24 21:11:00,
2013-02-24 15:13:00,68.7,45.8,29.82,ESE,117,10.0,17.0,44,0.00,,,0.00,WUHU21623XXSP,2013-02-24 21:13:00,
2013-02-24 15:14:00,68.7,45.8,29.82,ESE,112,19.0,19.0,44,0.00,,,0.00,WUHU21623XXSP,2013-02-24 21:14:00,
2013-02-24 15:16:00,68.7,45.8,29.82,ESE,112,13.0,22.0,44,0.00,,,0.00,WUHU21623XXSP,2013-02-24 21:16:00,
2013-02-24 15:18:00,68.9,46.0,29.82,SE,135,12.0,22.0,44,0.00,,,0.00,WUHU21623XXSP,2013-02-24 21:18:00,
2013-02-24 15:19:00,68.9,46.0,29.82,SE,124,7.0,22.0,44,0.00,,,0.00,WUHU21623XXSP,2013-02-24 21:19:00,
2013-02-24 15:21:00,68.9,46.0,29.82,ESE,112,9.0,22.0,44,0.00,,,0.00,WUHU21623XXSP,2013-02-24 21:21:00,
2013-02-24 15:23:00,68.9,46.0,29.81,SE,135,7.0,22.0,44,0.00,,,0.00,WUHU21623XXSP,2013-02-24 21:23:00,
2013-02-24 15:24:00,68.9,46.0,29.81,ESE,112,8.0,22.0,44,0.00,,,0.00,WUHU21623XXSP,2013-02-24 21:24:00,
2013-02-24 15:26:00,69.1,46.1,29.81,SE,135,12.0,18.0,44,0.00,,,0.00,WUHU21623XXSP,2013-02-24 21:26:00,
2013-02-24 15:28:00,69.1,46.1,29.81,East,90,13.0,18.0,44,0.00,,,0.00,WUHU21623XXSP,2013-02-24 21:28:00,
2013-02-24 15:29:00,69.1,46.1,29.81,ESE,112,12.0,18.0,44,0.00,,,0.00,WUHU21623XXSP,2013-02-24 21:29:00,
2013-02-24 15:31:00,69.1,46.1,29.81,ESE,120,8.0,18.0,44,0.00,,,0.00,WUHU21623XXSP,2013-02-24 21:31:00,
2013-02-24 15:33:00,69.1,46.1,29.81,ESE,112,10.0,18.0,44,0.00,,,0.00,WUHU21623XXSP,2013-02-24 21:33:00,
2013-02-24 15:34:00,69.1,46.1,29.81,ESE,112,21.0,21.0,44,0.00,,,0.00,WUHU21623XXSP,2013-02-24 21:34:00,
2013-02-24 15:36:00,69.3,45.7,29.81,ESE,112,15.0,21.0,43,0.00,,,0.00,WUHU21623XXSP,2013-02-24 21:36:00,
2013-02-24 15:38:00,69.4,45.9,29.80,ESE,112,11.0,21.0,43,0.00,,,0.00,WUHU21623XXSP,2013-02-24 21:38:00,
2013-02-24 15:39:00,69.3,45.7,29.80,ESE,122,10.0,21.0,43,0.00,,,0.00,WUHU21623XXSP,2013-02-24 21:39:00,
2013-02-24 15:41:00,69.4,45.9,29.80,SE,131,8.0,21.0,43,0.00,,,0.00,WUHU21623XXSP,2013-02-24 21:41:00,
2013-02-24 15:43:00,69.4,45.9,29.80,ESE,117,11.0,21.0,43,0.00,,,0.00,WUHU21623XXSP,2013-02-24 21:43:00,
2013-02-24 15:44:00,69.4,45.9,29.80,ESE,119,11.0,17.0,43,0.00,,,0.00,WUHU21623XXSP,2013-02-24 21:44:00,
2013-02-24 15:46:00,69.4,45.9,29.80,ESE,112,11.0,17.0,43,0.00,,,0.00,WUHU21623XXSP,2013-02-24 21:46:00,
2013-02-24 15:47:00,69.4,45.9,29.80,ESE,112,11.0,17.0,43,0.00,,,0.00,WUHU21623XXSP,2013-02-24 21:47:00,
2013-02-24 15:48:00,69.4,45.9,29.80,ESE,117,10.0,17.0,43,0.00,,,0.00,WUHU21623XXSP,2013-02-24 21:48:00,
2013-02-24 15:49:00,69.4,45.9,29.80,ESE,114,10.0,17.0,43,0.00,,,0.00,WUHU21623XXSP,2013-02-24 21:49:00,
2013-02-24 15:52:00,69.6,46.0,29.80,East,90,11.0,17.0,43,0.00,,,0.00,WUHU21623XXSP,2013-02-24 21:52:00,
2013-02-24 15:53:00,69.4,45.9,29.80,ESE,112,10.0,17.0,43,0.00,,,0.00,WUHU21623XXSP,2013-02-24 21:53:00,
2013-02-24 15:54:00,69.4,45.9,29.80,SSE,157,11.0,17.0,43,0.00,,,0.00,WUHU21623XXSP,2013-02-24 21:54:00,
2013-02-24 15:57:00,69.6,46.0,29.79,ESE,113,10.0,17.0,43,0.00,,,0.00,WUHU21623XXSP,2013-02-24 21:57:00,
2013-02-24 15:58:00,69.6,45.4,29.79,East,90,13.0,17.0,42,0.00,,,0.00,WUHU21623XXSP,2013-02-24 21:58:00,
2013-02-24 15:59:00,69.6,45.4,29.80,ESE,108,12.0,18.0,42,0.00,,,0.00,WUHU21623XXSP,2013-02-24 21:59:00,
2013-02-24 16:02:00,69.6,45.4,29.79,ESE,121,10.0,18.0,42,0.00,,,0.00,WUHU21623XXSP,2013-02-24 22:02:00,
2013-02-24 16:03:00,69.6,45.4,29.79,ESE,119,9.0,18.0,42,0.00,,,0.00,WUHU21623XXSP,2013-02-24 22:03:00,
2013-02-24 16:04:00,69.6,45.4,29.80,East,90,12.0,18.0,42,0.00,,,0.00,WUHU21623XXSP,2013-02-24 22:04:00,
2013-02-24 16:07:00,69.6,45.4,29.79,SSE,157,11.0,18.0,42,0.00,,,0.00,WUHU21623XXSP,2013-02-24 22:07:00,
2013-02-24 16:09:00,69.6,45.4,29.79,ESE,115,11.0,19.0,42,0.00,,,0.00,WUHU21623XXSP,2013-02-24 22:09:00,
2013-02-24 16:10:00,69.6,45.4,29.79,ESE,103,9.0,19.0,42,0.00,,,0.00,WUHU21623XXSP,2013-02-24 22:10:00,
2013-02-24 16:12:00,69.6,45.4,29.79,ESE,123,10.0,19.0,42,0.00,,,0.00,WUHU21623XXSP,2013-02-24 22:12:00,
2013-02-24 16:14:00,69.6,45.4,29.79,ESE,112,9.0,19.0,42,0.00,,,0.00,WUHU21623XXSP,2013-02-24 22:14:00,
2013-02-24 16:15:00,69.6,45.4,29.79,ESE,112,9.0,19.0,42,0.00,,,0.00,WUHU21623XXSP,2013-02-24 22:15:00,
2013-02-24 16:17:00,69.6,45.4,29.79,ESE,113,11.0,19.0,42,0.00,,,0.00,WUHU21623XXSP,2013-02-24 22:17:00,
2013-02-24 16:19:00,69.6,45.4,29.79,East,90,13.0,17.0,42,0.00,,,0.00,WUHU21623XXSP,2013-02-24 22:19:00,
2013-02-24 16:20:00,69.6,45.4,29.79,ESE,104,12.0,17.0,42,0.00,,,0.00,WUHU21623XXSP,2013-02-24 22:20:00,
2013-02-24 16:22:00,69.6,45.4,29.79,ESE,115,13.0,22.0,42,0.00,,,0.00,WUHU21623XXSP,2013-02-24 22:22:00,
2013-02-24 16:23:00,69.6,44.9,29.79,ESE,120,13.0,22.0,41,0.00,,,0.00,WUHU21623XXSP,2013-02-24 22:23:00,
2013-02-24 16:24:00,69.6,44.9,29.79,SE,135,16.0,22.0,41,0.00,,,0.00,WUHU21623XXSP,2013-02-24 22:24:00,
2013-02-24 16:25:00,69.6,44.7,29.79,ESE,112,15.0,22.0,41,0.00,,,0.00,WUHU21623XXSP,2013-02-24 22:25:00,
2013-02-24 16:27:00,69.6,45.4,29.79,ESE,112,15.0,22.0,42,0.00,,,0.00,WUHU21623XXSP,2013-02-24 22:27:00,
2013-02-24 16:28:00,69.6,44.9,29.79,ESE,109,11.0,22.0,41,0.00,,,0.00,WUHU21623XXSP,2013-02-24 22:28:00,
2013-02-24 16:29:00,69.6,44.9,29.79,ESE,112,8.0,22.0,41,0.00,,,0.00,WUHU21623XXSP,2013-02-24 22:29:00,
2013-02-24 16:30:00,69.6,44.9,29.79,East,90,11.0,22.0,41,0.00,,,0.00,WUHU21623XXSP,2013-02-24 22:30:00,
2013-02-24 16:32:00,69.6,44.9,29.79,SE,135,12.0,22.0,41,0.00,,,0.00,WUHU21623XXSP,2013-02-24 22:32:00,
2013-02-24 16:33:00,69.6,44.9,29.79,ESE,112,11.0,22.0,41,0.00,,,0.00,WUHU21623XXSP,2013-02-24 22:33:00,
2013-02-24 16:34:00,69.6,44.9,29.79,SE,129,8.0,22.0,41,0.00,,,0.00,WUHU21623XXSP,2013-02-24 22:34:00,
2013-02-24 16:35:00,69.6,44.9,29.79,ESE,123,8.0,15.0,41,0.00,,,0.00,WUHU21623XXSP,2013-02-24 22:35:00,
2013-02-24 16:38:00,69.6,44.9,29.79,ESE,112,16.0,17.0,41,0.00,,,0.00,WUHU21623XXSP,2013-02-24 22:38:00,
2013-02-24 16:40:00,69.6,44.9,29.79,ESE,112,10.0,17.0,41,0.00,,,0.00,WUHU21623XXSP,2013-02-24 22:40:00,
2013-02-24 16:43:00,69.6,44.9,29.79,SE,135,11.0,17.0,41,0.00,,,0.00,WUHU21623XXSP,2013-02-24 22:43:00,
2013-02-24 16:45:00,69.6,44.9,29.79,ESE,118,11.0,20.0,41,0.00,,,0.00,WUHU21623XXSP,2013-02-24 22:45:00,
2013-02-24 16:46:00,69.6,44.9,29.79,ESE,118,11.0,20.0,41,0.00,,,0.00,WUHU21623XXSP,2013-02-24 22:46:00,
2013-02-24 16:48:00,69.6,44.9,29.79,SE,135,8.0,20.0,41,0.00,,,0.00,WUHU21623XXSP,2013-02-24 22:48:00,
2013-02-24 16:50:00,69.6,44.9,29.79,ESE,122,11.0,20.0,41,0.00,,,0.00,WUHU21623XXSP,2013-02-24 22:50:00,
2013-02-24 16:51:00,69.6,44.9,29.79,SE,135,11.0,20.0,41,0.00,,,0.00,WUHU21623XXSP,2013-02-24 22:51:00,
2013-02-24 16:53:00,69.6,44.9,29.79,SSE,150,10.0,17.0,40,0.00,,,0.00,WUHU21623XXSP,2013-02-24 22:53:00,
2013-02-24 16:54:00,69.6,44.3,29.79,SE,135,13.0,17.0,40,0.00,,,0.00,WUHU21623XXSP,2013-02-24 22:54:00,
2013-02-24 16:55:00,69.6,44.3,29.79,SE,136,9.0,17.0,40,0.00,,,0.00,WUHU21623XXSP,2013-02-24 22:55:00,
2013-02-24 16:56:00,69.6,44.3,29.79,SE,129,8.0,17.0,40,0.00,,,0.00,WUHU21623XXSP,2013-02-24 22:56:00,
2013-02-24 16:58:00,69.6,44.3,29.79,SSE,157,10.0,17.0,40,0.00,,,0.00,WUHU21623XXSP,2013-02-24 22:58:00,
2013-02-24 16:59:00,69.6,44.3,29.79,SE,126,7.0,17.0,40,0.00,,,0.00,WUHU21623XXSP,2013-02-24 22:59:00,
2013-02-24 17:00:00,69.6,44.3,29.79,SE,127,6.0,17.0,40,0.00,,,0.00,WUHU21623XXSP,2013-02-24 23:00:00,
2013-02-24 17:01:00,69.6,44.3,29.79,SE,135,15.0,17.0,40,0.00,,,0.00,WUHU21623XXSP,2013-02-24 23:01:00,
2013-02-24 17:04:00,69.6,44.3,29.79,ESE,112,9.0,15.0,40,0.00,,,0.00,WUHU21623XXSP,2013-02-24 23:04:00,
2013-02-24 17:05:00,69.6,44.3,29.80,ESE,112,8.0,15.0,40,0.00,,,0.00,WUHU21623XXSP,2013-02-24 23:05:00,
2013-02-24 17:06:00,69.6,44.3,29.80,SSE,157,16.0,16.0,40,0.00,,,0.00,WUHU21623XXSP,2013-02-24 23:06:00,
2013-02-24 17:09:00,69.6,44.3,29.80,South,180,9.0,16.0,40,0.00,,,0.00,WUHU21623XXSP,2013-02-24 23:09:00,
2013-02-24 17:11:00,69.6,44.3,29.80,SE,135,17.0,17.0,40,0.00,,,0.00,WUHU21623XXSP,2013-02-24 23:11:00,
2013-02-24 17:14:00,69.6,44.3,29.80,SE,135,13.0,17.0,40,0.00,,,0.00,WUHU21623XXSP,2013-02-24 23:14:00,
2013-02-24 17:16:00,69.6,44.3,29.80,SE,133,8.0,17.0,40,0.00,,,0.00,WUHU21623XXSP,2013-02-24 23:16:00,
2013-02-24 17:19:00,69.6,44.3,29.80,SE,133,6.0,17.0,40,0.00,,,0.00,WUHU21623XXSP,2013-02-24 23:19:00,
2013-02-24 17:21:00,69.6,44.3,29.80,SE,132,8.0,16.0,40,0.00,,,0.00,WUHU21623XXSP,2013-02-24 23:21:00,
2013-02-24 17:24:00,69.6,44.3,29.79,SE,135,7.0,14.0,40,0.00,,,0.00,WUHU21623XXSP,2013-02-24 23:24:00,
2013-02-24 17:25:00,69.6,44.3,29.79,East,90,10.0,14.0,40,0.00,,,0.00,WUHU21623XXSP,2013-02-24 23:25:00,
2013-02-24 17:26:00,69.6,44.3,29.79,SE,135,9.0,14.0,40,0.00,,,0.00,WUHU21623XXSP,2013-02-24 23:26:00,
2013-02-24 17:29:00,69.6,44.3,29.79,SE,129,8.0,20.0,40,0.00,,,0.00,WUHU21623XXSP,2013-02-24 23:29:00,
2013-02-24 17:30:00,69.6,44.3,29.79,SE,128,8.0,20.0,40,0.00,,,0.00,WUHU21623XXSP,2013-02-24 23:30:00,
2013-02-24 17:31:00,69.6,44.3,29.80,SE,128,6.0,20.0,40,0.00,,,0.00,WUHU21623XXSP,2013-02-24 23:31:00,
2013-02-24 17:35:00,69.4,44.1,29.80,ESE,112,9.0,20.0,40,0.00,,,0.00,WUHU21623XXSP,2013-02-24 23:35:00,
2013-02-24 17:36:00,69.4,44.1,29.79,East,90,11.0,20.0,40,0.00,,,0.00,WUHU21623XXSP,2013-02-24 23:36:00,
2013-02-24 17:37:00,69.4,44.1,29.79,SE,135,13.0,20.0,40,0.00,,,0.00,WUHU21623XXSP,2013-02-24 23:37:00,
2013-02-24 17:40:00,69.4,44.1,29.80,SE,130,9.0,18.0,40,0.00,,,0.00,WUHU21623XXSP,2013-02-24 23:40:00,
2013-02-24 17:41:00,69.4,44.1,29.80,East,90,8.0,18.0,40,0.00,,,0.00,WUHU21623XXSP,2013-02-24 23:41:00,
2013-02-24 17:42:00,69.4,44.1,29.80,ESE,115,8.0,18.0,40,0.00,,,0.00,WUHU21623XXSP,2013-02-24 23:42:00,
2013-02-24 17:46:00,69.3,43.9,29.80,ESE,120,10.0,18.0,40,0.00,,,0.00,WUHU21623XXSP,2013-02-24 23:46:00,
2013-02-24 17:47:00,69.4,44.1,29.80,SE,124,8.0,18.0,40,0.00,,,0.00,WUHU21623XXSP,2013-02-24 23:47:00,
2013-02-24 17:51:00,69.3,43.9,29.80,SE,125,7.0,15.0,40,0.00,,,0.00,WUHU21623XXSP,2013-02-24 23:51:00,
2013-02-24 17:52:00,69.1,43.8,29.80,ESE,112,8.0,15.0,40,0.00,,,0.00,WUHU21623XXSP,2013-02-24 23:52:00,
2013-02-24 17:53:00,69.1,43.8,29.80,East,90,10.0,15.0,40,0.00,,,0.00,WUHU21623XXSP,2013-02-24 23:53:00,
2013-02-24 17:56:00,69.1,43.8,29.80,ESE,112,7.0,12.0,40,0.00,,,0.00,WUHU21623XXSP,2013-02-24 23:56:00,
2013-02-24 17:58:00,69.1,43.8,29.80,ESE,112,6.0,12.0,40,0.00,,,0.00,WUHU21623XXSP,2013-02-24 23:58:00,
2013-02-24 18:01:00,69.1,43.8,29.80,ESE,112,7.0,12.0,40,0.00,,,0.00,WUHU21623XXSP,2013-02-25 00:01:00,
2013-02-24 18:03:00,68.9,43.6,29.80,SE,135,9.0,11.0,40,0.00,,,0.00,WUHU21623XXSP,2013-02-25 00:03:00,
2013-02-24 18:06:00,68.9,44.2,29.80,ESE,119,5.0,11.0,41,0.00,,,0.00,WUHU21623XXSP,2013-02-25 00:06:00,
2013-02-24 18:07:00,68.9,44.2,29.80,ESE,121,5.0,11.0,41,0.00,,,0.00,WUHU21623XXSP,2013-02-25 00:07:00,
2013-02-24 18:08:00,68.9,44.2,29.81,SE,135,5.0,10.0,41,0.00,,,0.00,WUHU21623XXSP,2013-02-25 00:08:00,
2013-02-24 18:11:00,68.7,44.0,29.81,East,90,10.0,10.0,41,0.00,,,0.00,WUHU21623XXSP,2013-02-25 00:11:00,
2013-02-24 18:12:00,68.7,44.0,29.81,ESE,102,7.0,10.0,41,0.00,,,0.00,WUHU21623XXSP,2013-02-25 00:12:00,
2013-02-24 18:13:00,68.7,43.4,29.81,ESE,120,7.0,10.0,40,0.00,,,0.00,WUHU21623XXSP,2013-02-25 00:13:00,
2013-02-24 18:16:00,68.7,43.4,29.81,ESE,112,5.0,10.0,40,0.00,,,0.00,WUHU21623XXSP,2013-02-25 00:16:00,
2013-02-24 18:17:00,68.7,43.4,29.81,ESE,112,10.0,10.0,40,0.00,,,0.00,WUHU21623XXSP,2013-02-25 00:17:00,
2013-02-24 18:18:00,68.5,43.9,29.81,ESE,114,6.0,10.0,41,0.00,,,0.00,WUHU21623XXSP,2013-02-25 00:18:00,
2013-02-24 18:21:00,68.5,43.9,29.80,ESE,121,6.0,10.0,41,0.00,,,0.00,WUHU21623XXSP,2013-02-25 00:21:00,
2013-02-24 18:23:00,68.5,43.9,29.80,ESE,112,9.0,10.0,41,0.00,,,0.00,WUHU21623XXSP,2013-02-25 00:23:00,
2013-02-24 18:24:00,68.4,43.7,29.80,ESE,114,6.0,10.0,41,0.00,,,0.00,WUHU21623XXSP,2013-02-25 00:24:00,
2013-02-24 18:27:00,68.4,43.7,29.80,ESE,112,9.0,9.0,41,0.00,,,0.00,WUHU21623XXSP,2013-02-25 00:27:00,
2013-02-24 18:28:00,68.4,43.7,29.80,SE,135,7.0,9.0,41,0.00,,,0.00,WUHU21623XXSP,2013-02-25 00:28:00,
2013-02-24 18:29:00,68.2,43.6,29.80,SE,125,5.0,9.0,41,0.00,,,0.00,WUHU21623XXSP,2013-02-25 00:29:00,
2013-02-24 18:32:00,68.2,43.6,29.80,ESE,112,9.0,10.0,41,0.00,,,0.00,WUHU21623XXSP,2013-02-25 00:32:00,
2013-02-24 18:33:00,68.2,43.6,29.80,ESE,112,7.0,11.0,41,0.00,,,0.00,WUHU21623XXSP,2013-02-25 00:33:00,
2013-02-24 18:34:00,68.2,43.6,29.80,ESE,102,7.0,11.0,41,0.00,,,0.00,WUHU21623XXSP,2013-02-25 00:34:00,
2013-02-24 18:37:00,67.8,43.2,29.80,ESE,117,5.0,11.0,41,0.00,,,0.00,WUHU21623XXSP,2013-02-25 00:37:00,
2013-02-24 18:38:00,67.8,43.2,29.80,ENE,67,5.0,11.0,41,0.00,,,0.00,WUHU21623XXSP,2013-02-25 00:38:00,
2013-02-24 18:39:00,67.8,43.2,29.80,ESE,109,6.0,11.0,41,0.00,,,0.00,WUHU21623XXSP,2013-02-25 00:39:00,
2013-02-24 18:42:00,67.8,43.2,29.80,ESE,112,8.0,9.0,41,0.00,,,0.00,WUHU21623XXSP,2013-02-25 00:42:00,
2013-02-24 18:43:00,67.8,43.2,29.80,ESE,109,5.0,9.0,41,0.00,,,0.00,WUHU21623XXSP,2013-02-25 00:43:00,
2013-02-24 18:44:00,67.8,43.2,29.80,ESE,112,7.0,9.0,41,0.00,,,0.00,WUHU21623XXSP,2013-02-25 00:44:00,
2013-02-24 18:47:00,67.6,43.1,29.80,ESE,112,5.0,8.0,41,0.00,,,0.00,WUHU21623XXSP,2013-02-25 00:47:00,
2013-02-24 18:48:00,67.6,43.1,29.80,SE,135,6.0,8.0,41,0.00,,,0.00,WUHU21623XXSP,2013-02-25 00:48:00,
2013-02-24 18:49:00,67.6,43.1,29.80,ESE,112,6.0,8.0,41,0.00,,,0.00,WUHU21623XXSP,2013-02-25 00:49:00,
2013-02-24 18:52:00,67.6,43.1,29.79,ESE,120,6.0,10.0,41,0.00,,,0.00,WUHU21623XXSP,2013-02-25 00:52:00,
2013-02-24 18:53:00,67.6,43.1,29.79,ESE,119,6.0,10.0,41,0.00,,,0.00,WUHU21623XXSP,2013-02-25 00:53:00,
2013-02-24 18:54:00,67.5,42.9,29.79,ESE,112,7.0,10.0,41,0.00,,,0.00,WUHU21623XXSP,2013-02-25 00:54:00,
2013-02-24 18:57:00,67.3,42.7,29.79,SE,135,7.0,10.0,41,0.00,,,0.00,WUHU21623XXSP,2013-02-25 00:57:00,
2013-02-24 18:58:00,67.3,42.7,29.79,ESE,112,8.0,10.0,41,0.00,,,0.00,WUHU21623XXSP,2013-02-25 00:58:00,
2013-02-24 18:59:00,67.3,42.7,29.79,ESE,112,8.0,10.0,41,0.00,,,0.00,WUHU21623XXSP,2013-02-25 00:59:00,
2013-02-24 19:02:00,67.3,42.7,29.78,ESE,102,6.0,10.0,41,0.00,,,0.00,WUHU21623XXSP,2013-02-25 01:02:00,
2013-02-24 19:04:00,67.3,42.7,29.78,ESE,109,6.0,10.0,41,0.00,,,0.00,WUHU21623XXSP,2013-02-25 01:04:00,
2013-02-24 19:05:00,67.3,42.7,29.78,ESE,104,7.0,10.0,41,0.00,,,0.00,WUHU21623XXSP,2013-02-25 01:05:00,
2013-02-24 19:07:00,67.1,42.6,29.78,ESE,112,9.0,10.0,41,0.00,,,0.00,WUHU21623XXSP,2013-02-25 01:07:00,
2013-02-24 19:09:00,66.9,42.4,29.78,ESE,112,7.0,10.0,41,0.00,,,0.00,WUHU21623XXSP,2013-02-25 01:09:00,
2013-02-24 19:10:00,66.9,42.4,29.78,ESE,112,7.0,10.0,41,0.00,,,0.00,WUHU21623XXSP,2013-02-25 01:10:00,
2013-02-24 19:12:00,66.9,42.4,29.79,ESE,112,8.0,10.0,41,0.00,,,0.00,WUHU21623XXSP,2013-02-25 01:12:00,
2013-02-24 19:14:00,66.7,42.3,29.79,ESE,112,8.0,10.0,41,0.00,,,0.00,WUHU21623XXSP,2013-02-25 01:14:00,
2013-02-24 19:15:00,66.7,42.3,29.79,East,90,8.0,10.0,41,0.00,,,0.00,WUHU21623XXSP,2013-02-25 01:15:00,
2013-02-24 19:17:00,66.7,42.3,29.78,ESE,114,5.0,10.0,41,0.00,,,0.00,WUHU21623XXSP,2013-02-25 01:17:00,
2013-02-24 19:20:00,66.6,42.1,29.78,ESE,112,9.0,10.0,41,0.00,,,0.00,WUHU21623XXSP,2013-02-25 01:20:00,
2013-02-24 19:23:00,66.6,42.1,29.78,ESE,112,10.0,10.0,41,0.00,,,0.00,WUHU21623XXSP,2013-02-25 01:23:00,
2013-02-24 19:25:00,66.4,42.5,29.79,ENE,67,5.0,10.0,42,0.00,,,0.00,WUHU21623XXSP,2013-02-25 01:25:00,
2013-02-24 19:28:00,66.4,42.5,29.78,ESE,112,9.0,10.0,42,0.00,,,0.00,WUHU21623XXSP,2013-02-25 01:28:00,
2013-02-24 19:30:00,66.2,42.4,29.79,ESE,116,7.0,10.0,42,0.00,,,0.00,WUHU21623XXSP,2013-02-25 01:30:00,
2013-02-24 19:33:00,66.0,42.2,29.79,ESE,104,5.0,9.0,42,0.00,,,0.00,WUHU21623XXSP,2013-02-25 01:33:00,
2013-02-24 19:35:00,66.0,41.6,29.78,ESE,106,7.0,9.0,41,0.00,,,0.00,WUHU21623XXSP,2013-02-25 01:35:00,
2013-02-24 19:38:00,66.0,41.6,29.78,ESE,107,7.0,10.0,41,0.00,,,0.00,WUHU21623XXSP,2013-02-25 01:38:00,
2013-02-24 19:40:00,66.0,41.6,29.78,ESE,110,5.0,10.0,41,0.00,,,0.00,WUHU21623XXSP,2013-02-25 01:40:00,
2013-02-24 19:41:00,66.0,41.6,29.78,ESE,110,5.0,10.0,41,0.00,,,0.00,WUHU21623XXSP,2013-02-25 01:41:00,
2013-02-24 19:43:00,66.0,41.6,29.78,East,90,5.0,10.0,41,0.00,,,0.00,WUHU21623XXSP,2013-02-25 01:43:00,
2013-02-24 19:45:00,65.8,41.4,29.78,East,99,7.0,10.0,41,0.00,,,0.00,WUHU21623XXSP,2013-02-25 01:45:00,
2013-02-24 19:46:00,65.8,41.4,29.78,ESE,112,8.0,10.0,41,0.00,,,0.00,WUHU21623XXSP,2013-02-25 01:46:00,
2013-02-24 19:48:00,65.8,41.4,29.78,ESE,112,9.0,10.0,41,0.00,,,0.00,WUHU21623XXSP,2013-02-25 01:48:00,
2013-02-24 19:50:00,65.7,41.3,29.78,East,90,9.0,10.0,41,0.00,,,0.00,WUHU21623XXSP,2013-02-25 01:50:00,
2013-02-24 19:51:00,65.7,41.3,29.78,ESE,112,8.0,10.0,41,0.00,,,0.00,WUHU21623XXSP,2013-02-25 01:51:00,
2013-02-24 19:53:00,65.5,41.1,29.78,ESE,113,8.0,10.0,41,0.00,,,0.00,WUHU21623XXSP,2013-02-25 01:53:00,
2013-02-24 19:56:00,65.5,41.1,29.78,SE,135,9.0,9.0,41,0.00,,,0.00,WUHU21623XXSP,2013-02-25 01:56:00,
2013-02-24 19:58:00,65.5,41.1,29.78,ESE,115,5.0,9.0,41,0.00,,,0.00,WUHU21623XXSP,2013-02-25 01:58:00,
2013-02-24 20:01:00,65.3,40.9,29.78,ESE,112,6.0,9.0,41,0.00,,,0.00,WUHU21623XXSP,2013-02-25 02:01:00,
2013-02-24 20:03:00,65.3,40.9,29.78,ESE,111,4.0,9.0,41,0.00,,,0.00,WUHU21623XXSP,2013-02-25 02:03:00,
2013-02-24 20:06:00,65.1,40.8,29.78,ESE,112,6.0,9.0,41,0.00,,,0.00,WUHU21623XXSP,2013-02-25 02:06:00,
2013-02-24 20:08:00,65.1,40.8,29.78,ESE,112,12.0,12.0,41,0.00,,,0.00,WUHU21623XXSP,2013-02-25 02:08:00,
2013-02-24 20:11:00,65.1,40.8,29.78,ESE,112,6.0,12.0,41,0.00,,,0.00,WUHU21623XXSP,2013-02-25 02:11:00,
2013-02-24 20:13:00,65.1,41.4,29.78,ESE,119,6.0,12.0,42,0.00,,,0.00,WUHU21623XXSP,2013-02-25 02:13:00,
2013-02-24 20:16:00,64.9,41.2,29.78,ESE,116,7.0,12.0,42,0.00,,,0.00,WUHU21623XXSP,2013-02-25 02:16:00,
2013-02-24 20:19:00,64.9,41.2,29.78,ESE,121,7.0,10.0,42,0.00,,,0.00,WUHU21623XXSP,2013-02-25 02:19:00,
2013-02-24 20:21:00,64.9,41.2,29.78,ESE,112,7.0,10.0,42,0.00,,,0.00,WUHU21623XXSP,2013-02-25 02:21:00,
2013-02-24 20:24:00,64.8,41.0,29.78,ESE,114,5.0,10.0,42,0.00,,,0.00,WUHU21623XXSP,2013-02-25 02:24:00,
2013-02-24 20:26:00,64.8,41.0,29.78,ESE,116,5.0,9.0,42,0.00,,,0.00,WUHU21623XXSP,2013-02-25 02:26:00,
2013-02-24 20:27:00,64.8,41.0,29.78,East,90,6.0,9.0,42,0.00,,,0.00,WUHU21623XXSP,2013-02-25 02:27:00,
2013-02-24 20:29:00,64.8,41.0,29.78,ESE,119,5.0,9.0,42,0.00,,,0.00,WUHU21623XXSP,2013-02-25 02:29:00,
2013-02-24 20:31:00,64.6,40.9,29.78,ESE,112,7.0,9.0,42,0.00,,,0.00,WUHU21623XXSP,2013-02-25 02:31:00,
2013-02-24 20:32:00,64.6,40.9,29.78,ESE,112,6.0,9.0,42,0.00,,,0.00,WUHU21623XXSP,2013-02-25 02:32:00,
2013-02-24 20:34:00,64.6,40.9,29.78,ESE,104,5.0,8.0,42,0.00,,,0.00,WUHU21623XXSP,2013-02-25 02:34:00,
2013-02-24 20:36:00,64.6,40.9,29.79,ESE,116,4.0,8.0,42,0.00,,,0.00,WUHU21623XXSP,2013-02-25 02:36:00,
2013-02-24 20:37:00,64.6,40.9,29.79,ESE,112,5.0,8.0,42,0.00,,,0.00,WUHU21623XXSP,2013-02-25 02:37:00,
2013-02-24 20:39:00,64.6,40.9,29.79,ESE,115,5.0,8.0,42,0.00,,,0.00,WUHU21623XXSP,2013-02-25 02:39:00,
2013-02-24 20:41:00,64.6,40.9,29.79,East,90,6.0,8.0,42,0.00,,,0.00,WUHU21623XXSP,2013-02-25 02:41:00,
2013-02-24 20:42:00,64.4,40.7,29.79,ESE,112,5.0,8.0,42,0.00,,,0.00,WUHU21623XXSP,2013-02-25 02:42:00,
2013-02-24 20:44:00,64.4,40.7,29.79,ESE,112,6.0,7.0,42,0.00,,,0.00,WUHU21623XXSP,2013-02-25 02:44:00,
2013-02-24 20:46:00,64.4,40.7,29.79,SE,135,8.0,8.0,42,0.00,,,0.00,WUHU21623XXSP,2013-02-25 02:46:00,
2013-02-24 20:47:00,64.2,40.5,29.79,ESE,118,5.0,8.0,42,0.00,,,0.00,WUHU21623XXSP,2013-02-25 02:47:00,
2013-02-24 20:49:00,64.2,40.5,29.79,ESE,112,5.0,8.0,42,0.00,,,0.00,WUHU21623XXSP,2013-02-25 02:49:00,
2013-02-24 20:51:00,64.2,40.5,29.79,ESE,112,4.0,8.0,42,0.00,,,0.00,WUHU21623XXSP,2013-02-25 02:51:00,
2013-02-24 20:52:00,64.2,40.5,29.79,ESE,112,5.0,8.0,42,0.00,,,0.00,WUHU21623XXSP,2013-02-25 02:52:00,
2013-02-24 20:55:00,64.2,40.5,29.79,ESE,112,6.0,10.0,42,0.00,,,0.00,WUHU21623XXSP,2013-02-25 02:55:00,
2013-02-24 20:56:00,64.2,40.5,29.79,ESE,119,3.0,10.0,42,0.00,,,0.00,WUHU21623XXSP,2013-02-25 02:56:00,
2013-02-24 20:57:00,64.2,40.5,29.79,SE,135,5.0,10.0,42,0.00,,,0.00,WUHU21623XXSP,2013-02-25 02:57:00,
2013-02-24 20:58:00,64.2,40.5,29.79,East,90,8.0,10.0,42,0.00,,,0.00,WUHU21623XXSP,2013-02-25 02:58:00,
2013-02-24 21:00:00,64.0,40.4,29.79,East,90,5.0,10.0,42,0.00,,,0.00,WUHU21623XXSP,2013-02-25 03:00:00,
2013-02-24 21:02:00,64.0,40.4,29.79,ESE,112,11.0,11.0,42,0.00,,,0.00,WUHU21623XXSP,2013-02-25 03:02:00,
2013-02-24 21:03:00,64.0,40.4,29.79,ESE,110,6.0,11.0,42,0.00,,,0.00,WUHU21623XXSP,2013-02-25 03:03:00,
2013-02-24 21:05:00,64.0,40.4,29.79,ESE,105,6.0,11.0,42,0.00,,,0.00,WUHU21623XXSP,2013-02-25 03:05:00,
2013-02-24 21:07:00,64.0,41.0,29.79,ESE,111,4.0,11.0,43,0.00,,,0.00,WUHU21623XXSP,2013-02-25 03:07:00,
2013-02-24 21:08:00,64.0,41.0,29.79,ESE,112,6.0,11.0,43,0.00,,,0.00,WUHU21623XXSP,2013-02-25 03:08:00,
2013-02-24 21:11:00,64.0,41.0,29.78,ESE,112,6.0,11.0,43,0.00,,,0.00,WUHU21623XXSP,2013-02-25 03:11:00,
2013-02-24 21:12:00,64.0,41.0,29.78,ESE,111,6.0,8.0,43,0.00,,,0.00,WUHU21623XXSP,2013-02-25 03:12:00,
2013-02-24 21:13:00,64.0,41.0,29.78,ESE,111,5.0,8.0,43,0.00,,,0.00,WUHU21623XXSP,2013-02-25 03:13:00,
2013-02-24 21:16:00,63.9,40.8,29.79,ESE,112,6.0,9.0,43,0.00,,,0.00,WUHU21623XXSP,2013-02-25 03:16:00,
2013-02-24 21:18:00,63.7,40.6,29.79,ESE,114,6.0,10.0,43,0.00,,,0.00,WUHU21623XXSP,2013-02-25 03:18:00,
2013-02-24 21:21:00,63.7,40.6,29.79,ESE,112,5.0,10.0,43,0.00,,,0.00,WUHU21623XXSP,2013-02-25 03:21:00,
2013-02-24 21:23:00,63.7,40.6,29.78,ESE,112,5.0,10.0,43,0.00,,,0.00,WUHU21623XXSP,2013-02-25 03:23:00,
2013-02-24 21:26:00,63.7,40.6,29.78,East,90,5.0,10.0,43,0.00,,,0.00,WUHU21623XXSP,2013-02-25 03:26:00,
2013-02-24 21:28:00,63.5,40.5,29.78,ESE,112,4.0,9.0,43,0.00,,,0.00,WUHU21623XXSP,2013-02-25 03:28:00,
2013-02-24 21:31:00,63.5,40.5,29.78,ESE,112,3.0,8.0,43,0.00,,,0.00,WUHU21623XXSP,2013-02-25 03:31:00,
2013-02-24 21:33:00,63.3,40.3,29.78,ESE,102,3.0,7.0,43,0.00,,,0.00,WUHU21623XXSP,2013-02-25 03:33:00,
2013-02-24 21:36:00,63.3,40.3,29.79,East,91,4.0,7.0,43,0.00,,,0.00,WUHU21623XXSP,2013-02-25 03:36:00,
2013-02-24 21:38:00,63.1,40.2,29.78,East,91,4.0,7.0,43,0.00,,,0.00,WUHU21623XXSP,2013-02-25 03:38:00,
2013-02-24 21:41:00,63.1,40.2,29.79,East,90,5.0,7.0,43,0.00,,,0.00,WUHU21623XXSP,2013-02-25 03:41:00,
2013-02-24 21:43:00,63.1,40.2,29.78,ESE,112,5.0,7.0,43,0.00,,,0.00,WUHU21623XXSP,2013-02-25 03:43:00,
2013-02-24 21:44:00,63.1,40.2,29.78,East,89,5.0,7.0,43,0.00,,,0.00,WUHU21623XXSP,2013-02-25 03:44:00,
2013-02-24 21:46:00,63.1,40.7,29.78,East,93,7.0,8.0,44,0.00,,,0.00,WUHU21623XXSP,2013-02-25 03:46:00,
2013-02-24 21:48:00,63.0,40.6,29.78,East,93,6.0,8.0,44,0.00,,,0.00,WUHU21623XXSP,2013-02-25 03:48:00,
2013-02-24 21:49:00,63.0,40.6,29.78,ENE,67,8.0,8.0,44,0.00,,,0.00,WUHU21623XXSP,2013-02-25 03:49:00,
2013-02-24 21:51:00,62.8,40.4,29.78,East,90,8.0,8.0,44,0.00,,,0.00,WUHU21623XXSP,2013-02-25 03:51:00,
2013-02-24 21:53:00,62.8,40.4,29.78,East,91,6.0,8.0,44,0.00,,,0.00,WUHU21623XXSP,2013-02-25 03:53:00,
2013-02-24 21:54:00,62.8,40.4,29.78,ENE,67,8.0,8.0,44,0.00,,,0.00,WUHU21623XXSP,2013-02-25 03:54:00,
2013-02-24 21:57:00,62.8,40.4,29.78,East,87,5.0,8.0,44,0.00,,,0.00,WUHU21623XXSP,2013-02-25 03:57:00,
2013-02-24 21:58:00,62.8,40.4,29.78,East,90,5.0,8.0,44,0.00,,,0.00,WUHU21623XXSP,2013-02-25 03:58:00,
2013-02-24 21:59:00,62.8,40.4,29.78,East,90,5.0,8.0,44,0.00,,,0.00,WUHU21623XXSP,2013-02-25 03:59:00,
2013-02-24 22:02:00,62.6,40.2,29.78,ENE,67,5.0,8.0,44,0.00,,,0.00,WUHU21623XXSP,2013-02-25 04:02:00,
2013-02-24 22:03:00,62.4,40.1,29.78,East,95,4.0,8.0,44,0.00,,,0.00,WUHU21623XXSP,2013-02-25 04:03:00,
2013-02-24 22:04:00,62.4,40.1,29.78,East,90,8.0,8.0,44,0.00,,,0.00,WUHU21623XXSP,2013-02-25 04:04:00,
2013-02-24 22:07:00,62.4,40.1,29.78,East,96,5.0,8.0,44,0.00,,,0.00,WUHU21623XXSP,2013-02-25 04:07:00,
2013-02-24 22:09:00,62.4,40.1,29.78,ESE,112,7.0,8.0,44,0.00,,,0.00,WUHU21623XXSP,2013-02-25 04:09:00,
2013-02-24 22:12:00,62.2,39.9,29.78,East,90,5.0,8.0,44,0.00,,,0.00,WUHU21623XXSP,2013-02-25 04:12:00,
2013-02-24 22:14:00,62.2,40.5,29.78,East,82,6.0,9.0,45,0.00,,,0.00,WUHU21623XXSP,2013-02-25 04:14:00,
2013-02-24 22:15:00,62.2,40.5,29.78,East,90,9.0,9.0,45,0.00,,,0.00,WUHU21623XXSP,2013-02-25 04:15:00,
2013-02-24 22:17:00,62.2,40.5,29.78,East,92,6.0,9.0,45,0.00,,,0.00,WUHU21623XXSP,2013-02-25 04:17:00,
2013-02-24 22:19:00,62.1,40.3,29.78,ESE,112,7.0,9.0,45,0.00,,,0.00,WUHU21623XXSP,2013-02-25 04:19:00,
2013-02-24 22:20:00,62.1,40.3,29.78,East,94,5.0,9.0,45,0.00,,,0.00,WUHU21623XXSP,2013-02-25 04:20:00,
2013-02-24 22:23:00,61.9,40.2,29.78,East,98,5.0,9.0,45,0.00,,,0.00,WUHU21623XXSP,2013-02-25 04:23:00,
2013-02-24 22:24:00,61.9,40.2,29.78,East,98,5.0,9.0,45,0.00,,,0.00,WUHU21623XXSP,2013-02-25 04:24:00,
2013-02-24 22:25:00,61.9,40.2,29.78,ESE,112,6.0,8.0,45,0.00,,,0.00,WUHU21623XXSP,2013-02-25 04:25:00,
2013-02-24 22:28:00,61.9,40.2,29.78,ESE,112,4.0,8.0,45,0.00,,,0.00,WUHU21623XXSP,2013-02-25 04:28:00,
2013-02-24 22:29:00,61.9,40.2,29.78,ESE,102,4.0,8.0,45,0.00,,,0.00,WUHU21623XXSP,2013-02-25 04:29:00,
2013-02-24 22:30:00,61.7,40.0,29.78,ESE,102,3.0,7.0,45,0.00,,,0.00,WUHU21623XXSP,2013-02-25 04:30:00,
2013-02-24 22:33:00,61.7,40.0,29.78,East,97,4.0,7.0,45,0.00,,,0.00,WUHU21623XXSP,2013-02-25 04:33:00,
2013-02-24 22:34:00,61.5,39.8,29.78,ESE,103,4.0,6.0,45,0.00,,,0.00,WUHU21623XXSP,2013-02-25 04:34:00,
2013-02-24 22:35:00,61.5,39.8,29.78,East,90,5.0,6.0,45,0.00,,,0.00,WUHU21623XXSP,2013-02-25 04:35:00,
2013-02-24 22:38:00,61.5,39.8,29.78,ESE,118,4.0,7.0,45,0.00,,,0.00,WUHU21623XXSP,2013-02-25 04:38:00,
2013-02-24 22:39:00,61.5,39.8,29.78,ESE,116,5.0,7.0,45,0.00,,,0.00,WUHU21623XXSP,2013-02-25 04:39:00,
2013-02-24 22:40:00,61.5,39.8,29.77,ESE,112,4.0,7.0,45,0.00,,,0.00,WUHU21623XXSP,2013-02-25 04:40:00,
2013-02-24 22:43:00,61.5,39.8,29.77,SE,135,8.0,10.0,45,0.00,,,0.00,WUHU21623XXSP,2013-02-25 04:43:00,
2013-02-24 22:44:00,61.5,39.8,29.77,ESE,112,8.0,10.0,45,0.00,,,0.00,WUHU21623XXSP,2013-02-25 04:44:00,
2013-02-24 22:46:00,61.3,40.3,29.77,ESE,106,4.0,10.0,46,0.00,,,0.00,WUHU21623XXSP,2013-02-25 04:46:00,
2013-02-24 22:49:00,61.3,40.3,29.77,East,90,10.0,10.0,46,0.00,,,0.00,WUHU21623XXSP,2013-02-25 04:49:00,
2013-02-24 22:51:00,61.3,40.3,29.76,ESE,112,9.0,11.0,46,0.00,,,0.00,WUHU21623XXSP,2013-02-25 04:51:00,
2013-02-24 22:54:00,61.3,40.3,29.76,ESE,112,11.0,11.0,46,0.00,,,0.00,WUHU21623XXSP,2013-02-25 04:54:00,
2013-02-24 22:55:00,61.2,40.1,29.76,East,90,9.0,11.0,46,0.00,,,0.00,WUHU21623XXSP,2013-02-25 04:55:00,
2013-02-24 22:56:00,61.2,40.1,29.76,East,90,10.0,11.0,46,0.00,,,0.00,WUHU21623XXSP,2013-02-25 04:56:00,
2013-02-24 22:59:00,61.2,40.1,29.75,ESE,108,9.0,13.0,46,0.00,,,0.00,WUHU21623XXSP,2013-02-25 04:59:00,
2013-02-24 23:00:00,61.2,40.1,29.75,ESE,112,11.0,13.0,46,0.00,,,0.00,WUHU21623XXSP,2013-02-25 05:00:00,
2013-02-24 23:05:00,61.0,39.9,29.75,ESE,120,7.0,14.0,46,0.00,,,0.00,WUHU21623XXSP,2013-02-25 05:05:00,
2013-02-24 23:10:00,61.0,39.9,29.75,ESE,109,8.0,14.0,46,0.00,,,0.00,WUHU21623XXSP,2013-02-25 05:10:00,
2013-02-24 23:15:00,61.0,39.9,29.74,ESE,112,10.0,12.0,46,0.00,,,0.00,WUHU21623XXSP,2013-02-25 05:15:00,
2013-02-24 23:16:00,61.0,39.9,29.74,ESE,103,8.0,12.0,46,0.00,,,0.00,WUHU21623XXSP,2013-02-25 05:16:00,
2013-02-24 23:20:00,60.8,39.8,29.74,SE,128,9.0,12.0,46,0.00,,,0.00,WUHU21623XXSP,2013-02-25 05:20:00,
2013-02-24 23:21:00,60.8,39.8,29.73,ESE,120,9.0,12.0,46,0.00,,,0.00,WUHU21623XXSP,2013-02-25 05:21:00,
2013-02-24 23:25:00,60.6,39.6,29.73,ESE,112,10.0,13.0,46,0.00,,,0.00,WUHU21623XXSP,2013-02-25 05:25:00,
2013-02-24 23:26:00,60.6,40.2,29.73,ESE,112,9.0,13.0,47,0.00,,,0.00,WUHU21623XXSP,2013-02-25 05:26:00,
2013-02-24 23:30:00,60.6,40.2,29.72,SE,135,13.0,13.0,47,0.00,,,0.00,WUHU21623XXSP,2013-02-25 05:30:00,
2013-02-24 23:31:00,60.6,40.2,29.72,SE,124,9.0,13.0,47,0.00,,,0.00,WUHU21623XXSP,2013-02-25 05:31:00,
2013-02-24 23:35:00,60.6,40.2,29.72,ESE,112,7.0,13.0,47,0.00,,,0.00,WUHU21623XXSP,2013-02-25 05:35:00,
2013-02-24 23:36:00,60.6,40.2,29.72,SE,135,11.0,13.0,47,0.00,,,0.00,WUHU21623XXSP,2013-02-25 05:36:00,
2013-02-24 23:41:00,60.6,40.2,29.71,ESE,112,9.0,12.0,47,0.00,,,0.00,WUHU21623XXSP,2013-02-25 05:41:00,
2013-02-24 23:46:00,60.6,40.2,29.71,ESE,112,11.0,12.0,47,0.00,,,0.00,WUHU21623XXSP,2013-02-25 05:46:00,
2013-02-24 23:47:00,60.4,40.0,29.71,ESE,111,8.0,12.0,47,0.00,,,0.00,WUHU21623XXSP,2013-02-25 05:47:00,
2013-02-24 23:51:00,60.4,40.6,29.71,East,90,9.0,13.0,48,0.00,,,0.00,WUHU21623XXSP,2013-02-25 05:51:00,
2013-02-24 23:52:00,60.4,40.6,29.71,ESE,112,11.0,13.0,48,0.00,,,0.00,WUHU21623XXSP,2013-02-25 05:52:00,
2013-02-24 23:56:00,60.4,40.6,29.71,SE,135,8.0,13.0,48,0.00,,,0.00,WUHU21623XXSP,2013-02-25 05:56:00,
2013-02-24 23:58:00,60.4,40.6,29.70,SE,135,11.0,13.0,48,0.00,,,0.00,WUHU21623XXSP,2013-02-25 05:58:00,